Time,TemperatureF,DewpointF,PressureIn,WindDirection,WindDirectionDegrees,WindSpeedMPH,WindSpeedGustMPH,Humidity,HourlyPrecipIn,Conditions,Clouds,dailyrainin,SoftwareType,DateUTC
2013-04-15 00:00:00,64.6,53.4,29.64,South,187,16.0,18.0,67,0.00,,,0.00,Wunderground v.1.15,2013-04-15 05:00:00,
2013-04-15 00:03:00,64.4,53.2,29.64,SSE,159,16.0,21.0,67,0.00,,,0.00,Wunderground v.1.15,2013-04-15 05:03:00,
2013-04-15 00:05:00,64.4,53.2,29.64,SSE,160,16.0,21.0,67,0.00,,,0.00,Wunderground v.1.15,2013-04-15 05:05:00,
2013-04-15 00:06:00,64.3,53.1,29.64,South,186,16.0,21.0,67,0.00,,,0.00,Wunderground v.1.15,2013-04-15 05:06:00,
2013-04-15 00:07:00,64.3,53.1,29.64,SSE,165,16.0,21.0,67,0.00,,,0.00,Wunderground v.1.15,2013-04-15 05:07:00,
2013-04-15 00:08:00,64.3,53.1,29.64,South,177,16.0,21.0,67,0.00,,,0.00,Wunderground v.1.15,2013-04-15 05:08:00,
2013-04-15 00:12:00,64.3,52.7,29.64,SSW,194,18.0,21.0,66,0.00,,,0.00,Wunderground v.1.15,2013-04-15 05:12:00,
2013-04-15 00:14:00,64.3,52.7,29.65,South,169,19.0,25.0,66,0.00,,,0.00,Wunderground v.1.15,2013-04-15 05:14:00,
2013-04-15 00:15:00,64.3,52.7,29.65,SSE,164,20.0,25.0,66,0.00,,,0.00,Wunderground v.1.15,2013-04-15 05:15:00,
2013-04-15 00:17:00,64.3,53.1,29.65,SSE,167,21.0,25.0,67,0.00,,,0.00,Wunderground v.1.15,2013-04-15 05:17:00,
2013-04-15 00:18:00,64.2,53.0,29.65,South,179,20.0,27.0,67,0.00,,,0.00,Wunderground v.1.15,2013-04-15 05:18:00,
2013-04-15 00:20:00,64.0,53.2,29.65,South,169,21.0,21.0,68,0.00,,,0.00,Wunderground v.1.15,2013-04-15 05:20:00,
2013-04-15 00:25:00,63.6,52.8,29.66,South,178,19.0,22.0,68,0.00,,,0.00,Wunderground v.1.15,2013-04-15 05:25:00,
2013-04-15 00:26:00,63.4,53.0,29.65,SSW,200,19.0,22.0,69,0.00,,,0.00,Wunderground v.1.15,2013-04-15 05:26:00,
2013-04-15 00:27:00,63.4,53.0,29.66,South,173,18.0,22.0,69,0.00,,,0.00,Wunderground v.1.15,2013-04-15 05:27:00,
2013-04-15 00:28:00,63.3,53.3,29.66,South,183,19.0,22.0,70,0.00,,,0.00,Wunderground v.1.15,2013-04-15 05:28:00,
2013-04-15 00:33:00,62.8,52.9,29.67,South,187,18.0,20.0,70,0.00,,,0.01,Wunderground v.1.15,2013-04-15 05:33:00,
2013-04-15 00:35:00,62.6,53.1,29.67,South,191,18.0,20.0,71,0.00,,,0.01,Wunderground v.1.15,2013-04-15 05:35:00,
2013-04-15 00:38:00,62.4,53.3,29.68,South,183,17.0,23.0,72,0.00,,,0.01,Wunderground v.1.15,2013-04-15 05:38:00,
2013-04-15 00:39:00,62.3,53.5,29.68,SSW,203,17.0,23.0,73,0.00,,,0.01,Wunderground v.1.15,2013-04-15 05:39:00,
2013-04-15 00:43:00,62.1,53.3,29.68,South,170,17.0,23.0,73,0.07,,,0.02,Wunderground v.1.15,2013-04-15 05:43:00,
2013-04-15 00:45:00,61.8,53.4,29.68,South,186,16.0,23.0,74,0.07,,,0.02,Wunderground v.1.15,2013-04-15 05:45:00,
2013-04-15 00:48:00,61.6,53.6,29.69,SSW,208,16.0,23.0,75,0.10,,,0.03,Wunderground v.1.15,2013-04-15 05:48:00,
2013-04-15 00:50:00,61.4,53.8,29.70,SSW,198,15.0,15.0,76,1.40,,,0.05,Wunderground v.1.15,2013-04-15 05:50:00,
2013-04-15 00:51:00,61.3,54.0,29.71,SSW,194,15.0,17.0,77,0.59,,,0.06,Wunderground v.1.15,2013-04-15 05:51:00,
2013-04-15 00:53:00,61.0,53.7,29.70,South,179,15.0,19.0,77,0.46,,,0.09,Wunderground v.1.15,2013-04-15 05:53:00,
2013-04-15 00:56:00,60.6,54.0,29.71,South,181,15.0,24.0,79,0.19,,,0.09,Wunderground v.1.15,2013-04-15 05:56:00,
2013-04-15 00:58:00,60.4,54.2,29.71,SSW,204,15.0,24.0,80,0.19,,,0.10,Wunderground v.1.15,2013-04-15 05:58:00,
2013-04-15 00:59:00,60.2,54.3,29.71,South,188,16.0,24.0,81,0.19,,,0.10,Wunderground v.1.15,2013-04-15 05:59:00,
2013-04-15 01:00:00,60.0,54.5,29.71,South,186,16.0,16.0,82,0.14,,,0.10,Wunderground v.1.15,2013-04-15 06:00:00,
2013-04-15 01:02:00,59.7,54.5,29.71,South,186,15.0,16.0,83,0.10,,,0.10,Wunderground v.1.15,2013-04-15 06:02:00,
2013-04-15 01:04:00,59.5,54.3,29.71,SSW,210,15.0,19.0,83,0.07,,,0.10,Wunderground v.1.15,2013-04-15 06:04:00,
2013-04-15 01:07:00,59.2,54.4,29.71,SSW,197,14.0,19.0,84,0.05,,,0.10,Wunderground v.1.15,2013-04-15 06:07:00,
2013-04-15 01:11:00,59.0,54.5,29.70,South,169,14.0,14.0,85,0.04,,,0.11,Wunderground v.1.15,2013-04-15 06:11:00,
2013-04-15 01:15:00,58.7,54.5,29.69,South,173,12.0,14.0,86,0.22,,,0.13,Wunderground v.1.15,2013-04-15 06:15:00,
2013-04-15 01:18:00,58.5,54.6,29.68,SSW,193,12.0,17.0,87,0.39,,,0.15,Wunderground v.1.15,2013-04-15 06:18:00,
2013-04-15 01:20:00,58.4,54.5,29.68,SSE,151,12.0,12.0,87,0.39,,,0.16,Wunderground v.1.15,2013-04-15 06:20:00,
2013-04-15 01:21:00,58.3,54.8,29.68,SSE,155,12.0,16.0,88,0.44,,,0.17,Wunderground v.1.15,2013-04-15 06:21:00,
2013-04-15 01:23:00,58.2,54.7,29.69,South,179,13.0,16.0,88,0.24,,,0.17,Wunderground v.1.15,2013-04-15 06:23:00,
2013-04-15 01:26:00,58.1,54.9,29.69,SSE,158,13.0,16.0,89,0.21,,,0.18,Wunderground v.1.15,2013-04-15 06:26:00,
2013-04-15 01:27:00,58.0,54.8,29.69,South,186,13.0,16.0,89,0.15,,,0.18,Wunderground v.1.15,2013-04-15 06:27:00,
2013-04-15 01:29:00,58.0,54.8,29.69,South,176,13.0,16.0,89,0.10,,,0.18,Wunderground v.1.15,2013-04-15 06:29:00,
2013-04-15 01:32:00,57.9,54.7,29.70,South,186,14.0,17.0,89,0.07,,,0.18,Wunderground v.1.15,2013-04-15 06:32:00,
2013-04-15 01:33:00,58.0,54.8,29.70,South,186,13.0,17.0,89,0.06,,,0.18,Wunderground v.1.15,2013-04-15 06:33:00,
2013-04-15 01:34:00,57.9,54.7,29.70,South,181,13.0,17.0,89,0.05,,,0.18,Wunderground v.1.15,2013-04-15 06:34:00,
2013-04-15 01:38:00,57.9,55.0,29.70,SSW,210,13.0,17.0,90,0.04,,,0.18,Wunderground v.1.15,2013-04-15 06:38:00,
2013-04-15 01:39:00,57.9,55.0,29.70,SSW,194,13.0,16.0,90,0.04,,,0.18,Wunderground v.1.15,2013-04-15 06:39:00,
2013-04-15 01:40:00,57.9,55.0,29.70,SSW,200,13.0,16.0,90,0.00,,,0.18,Wunderground v.1.15,2013-04-15 06:40:00,
2013-04-15 01:43:00,57.9,55.0,29.70,SSW,212,13.0,16.0,90,0.00,,,0.18,Wunderground v.1.15,2013-04-15 06:43:00,
2013-04-15 01:44:00,57.8,54.9,29.70,SSW,195,13.0,16.0,90,0.00,,,0.18,Wunderground v.1.15,2013-04-15 06:44:00,
2013-04-15 01:45:00,57.8,54.9,29.70,South,179,13.0,16.0,90,0.00,,,0.18,Wunderground v.1.15,2013-04-15 06:45:00,
2013-04-15 01:49:00,57.7,54.8,29.70,South,190,12.0,12.0,90,0.00,,,0.18,Wunderground v.1.15,2013-04-15 06:49:00,
2013-04-15 01:51:00,57.7,55.1,29.70,South,181,11.0,12.0,91,0.00,,,0.18,Wunderground v.1.15,2013-04-15 06:51:00,
2013-04-15 01:52:00,57.7,55.1,29.70,South,177,11.0,12.0,91,0.00,,,0.18,Wunderground v.1.15,2013-04-15 06:52:00,
2013-04-15 01:54:00,57.7,55.1,29.70,SSW,212,11.0,13.0,91,0.00,,,0.18,Wunderground v.1.15,2013-04-15 06:54:00,
2013-04-15 01:57:00,57.7,55.1,29.71,SSW,194,11.0,13.0,91,0.00,,,0.18,Wunderground v.1.15,2013-04-15 06:57:00,
2013-04-15 01:58:00,57.7,55.1,29.71,SW,215,10.0,13.0,91,0.00,,,0.18,Wunderground v.1.15,2013-04-15 06:58:00,
2013-04-15 02:00:00,57.6,55.0,29.71,SSW,205,10.0,10.0,91,0.00,,,0.18,Wunderground v.1.15,2013-04-15 07:00:00,
2013-04-15 02:04:00,57.6,55.0,29.70,SSE,150,8.0,10.0,91,0.40,,,0.21,Wunderground v.1.15,2013-04-15 07:04:00,
2013-04-15 02:41:00,57.1,55.1,29.69,South,181,7.0,8.0,93,0.00,,,0.26,Wunderground v.1.15,2013-04-15 07:41:00,
2013-04-15 02:42:00,57.0,55.0,29.69,South,177,7.0,8.0,93,0.00,,,0.26,Wunderground v.1.15,2013-04-15 07:42:00,
2013-04-15 02:44:00,57.0,55.0,29.69,SSE,160,7.0,8.0,93,0.00,,,0.26,Wunderground v.1.15,2013-04-15 07:44:00,
2013-04-15 02:48:00,57.0,55.0,29.69,South,191,7.0,8.0,93,0.00,,,0.26,Wunderground v.1.15,2013-04-15 07:48:00,
2013-04-15 02:50:00,57.0,55.3,29.69,South,181,6.0,6.0,94,0.00,,,0.26,Wunderground v.1.15,2013-04-15 07:50:00,
2013-04-15 02:51:00,57.0,55.3,29.69,SSE,166,6.0,9.0,94,0.00,,,0.26,Wunderground v.1.15,2013-04-15 07:51:00,
2013-04-15 02:52:00,57.0,55.3,29.69,South,186,6.0,9.0,94,0.00,,,0.26,Wunderground v.1.15,2013-04-15 07:52:00,
2013-04-15 02:54:00,57.0,55.3,29.70,South,188,6.0,9.0,94,0.00,,,0.26,Wunderground v.1.15,2013-04-15 07:54:00,
2013-04-15 02:57:00,57.0,55.3,29.70,South,191,6.0,9.0,94,0.00,,,0.26,Wunderground v.1.15,2013-04-15 07:57:00,
2013-04-15 02:59:00,57.1,55.4,29.70,South,188,6.0,9.0,94,0.00,,,0.26,Wunderground v.1.15,2013-04-15 07:59:00,
2013-04-15 03:00:00,57.1,55.4,29.70,South,176,6.0,6.0,94,0.00,,,0.26,Wunderground v.1.15,2013-04-15 08:00:00,
2013-04-15 03:03:00,57.1,55.4,29.70,South,186,6.0,7.0,94,0.00,,,0.26,Wunderground v.1.15,2013-04-15 08:03:00,
2013-04-15 03:06:00,57.0,55.3,29.70,South,186,5.0,7.0,94,0.00,,,0.27,Wunderground v.1.15,2013-04-15 08:06:00,
2013-04-15 03:07:00,57.0,55.3,29.71,SW,214,5.0,7.0,94,0.00,,,0.27,Wunderground v.1.15,2013-04-15 08:07:00,
2013-04-15 03:11:00,57.0,55.3,29.71,SSW,200,4.0,6.0,94,0.00,,,0.27,Wunderground v.1.15,2013-04-15 08:11:00,
2013-04-15 03:13:00,57.0,55.3,29.71,SW,226,4.0,6.0,94,0.00,,,0.27,Wunderground v.1.15,2013-04-15 08:13:00,
2013-04-15 03:16:00,56.9,55.2,29.71,SSW,212,4.0,6.0,94,0.06,,,0.28,Wunderground v.1.15,2013-04-15 08:16:00,
2013-04-15 03:19:00,56.8,55.1,29.71,SW,219,4.0,6.0,94,0.23,,,0.29,Wunderground v.1.15,2013-04-15 08:19:00,
2013-04-15 03:21:00,56.8,55.4,29.71,SW,232,4.0,4.0,95,0.22,,,0.30,Wunderground v.1.15,2013-04-15 08:21:00,
2013-04-15 03:24:00,56.8,55.4,29.71,SW,232,3.0,4.0,95,0.15,,,0.31,Wunderground v.1.15,2013-04-15 08:24:00,
2013-04-15 03:26:00,56.7,55.3,29.71,SW,225,3.0,4.0,95,0.15,,,0.31,Wunderground v.1.15,2013-04-15 08:26:00,
2013-04-15 03:27:00,56.7,55.3,29.71,SW,225,3.0,4.0,95,0.15,,,0.31,Wunderground v.1.15,2013-04-15 08:27:00,
2013-04-15 03:32:00,56.7,55.3,29.71,SW,228,2.0,3.0,95,0.10,,,0.32,Wunderground v.1.15,2013-04-15 08:32:00,
2013-04-15 03:35:00,56.6,55.2,29.71,SW,225,2.0,3.0,95,0.10,,,0.32,Wunderground v.1.15,2013-04-15 08:35:00,
2013-04-15 03:37:00,56.6,55.2,29.71,SW,225,2.0,5.0,95,0.09,,,0.32,Wunderground v.1.15,2013-04-15 08:37:00,
2013-04-15 03:40:00,56.6,55.5,29.71,SW,229,2.0,4.0,96,0.06,,,0.32,Wunderground v.1.15,2013-04-15 08:40:00,
2013-04-15 03:42:00,56.7,55.6,29.72,SW,224,3.0,5.0,96,0.06,,,0.33,Wunderground v.1.15,2013-04-15 08:42:00,
2013-04-15 03:43:00,56.6,55.5,29.72,SW,217,3.0,5.0,96,0.06,,,0.33,Wunderground v.1.15,2013-04-15 08:43:00,
2013-04-15 03:45:00,56.6,55.5,29.72,SW,227,3.0,5.0,96,0.06,,,0.33,Wunderground v.1.15,2013-04-15 08:45:00,
2013-04-15 03:49:00,56.6,55.5,29.72,SW,219,3.0,6.0,96,0.06,,,0.33,Wunderground v.1.15,2013-04-15 08:49:00,
2013-04-15 03:51:00,56.6,55.5,29.72,SSW,212,4.0,6.0,96,0.06,,,0.33,Wunderground v.1.15,2013-04-15 08:51:00,
2013-04-15 03:52:00,56.6,55.5,29.72,SW,222,3.0,6.0,96,0.06,,,0.33,Wunderground v.1.15,2013-04-15 08:52:00,
2013-04-15 03:55:00,56.6,55.5,29.72,SW,218,4.0,6.0,96,0.04,,,0.33,Wunderground v.1.15,2013-04-15 08:55:00,
2013-04-15 03:59:00,56.6,55.5,29.72,SW,215,4.0,6.0,96,0.28,,,0.35,Wunderground v.1.15,2013-04-15 08:59:00,
2013-04-15 04:00:00,56.6,55.5,29.73,SW,226,4.0,7.0,96,0.28,,,0.35,Wunderground v.1.15,2013-04-15 09:00:00,
2013-04-15 04:05:00,56.6,55.5,29.73,SSW,210,5.0,7.0,96,0.15,,,0.36,Wunderground v.1.15,2013-04-15 09:05:00,
2013-04-15 04:06:00,56.6,55.5,29.72,SSW,207,5.0,7.0,96,0.12,,,0.36,Wunderground v.1.15,2013-04-15 09:06:00,
2013-04-15 04:10:00,56.5,55.4,29.72,SSW,205,5.0,5.0,96,0.07,,,0.37,Wunderground v.1.15,2013-04-15 09:10:00,
2013-04-15 04:11:00,56.6,55.5,29.72,SSW,212,4.0,5.0,96,0.07,,,0.37,Wunderground v.1.15,2013-04-15 09:11:00,
2013-04-15 04:12:00,56.5,55.4,29.72,SSW,205,4.0,5.0,96,0.07,,,0.37,Wunderground v.1.15,2013-04-15 09:12:00,
2013-04-15 04:13:00,56.6,55.5,29.72,SW,224,4.0,5.0,96,0.07,,,0.37,Wunderground v.1.15,2013-04-15 09:13:00,
2013-04-15 04:17:00,56.5,55.4,29.72,SW,222,4.0,5.0,96,0.07,,,0.37,Wunderground v.1.15,2013-04-15 09:17:00,
2013-04-15 04:18:00,56.5,55.4,29.72,SW,215,4.0,5.0,96,0.07,,,0.37,Wunderground v.1.15,2013-04-15 09:18:00,
2013-04-15 04:19:00,56.5,55.4,29.72,SW,224,4.0,5.0,96,0.07,,,0.37,Wunderground v.1.15,2013-04-15 09:19:00,
2013-04-15 04:24:00,56.5,55.7,29.72,SW,215,4.0,6.0,97,0.04,,,0.37,Wunderground v.1.15,2013-04-15 09:24:00,
2013-04-15 04:26:00,56.5,55.4,29.72,SW,219,4.0,6.0,96,0.04,,,0.37,Wunderground v.1.15,2013-04-15 09:26:00,
2013-04-15 04:27:00,56.5,55.7,29.72,WSW,238,3.0,6.0,97,0.04,,,0.37,Wunderground v.1.15,2013-04-15 09:27:00,
2013-04-15 04:29:00,56.5,55.4,29.72,SW,224,3.0,6.0,96,0.00,,,0.37,Wunderground v.1.15,2013-04-15 09:29:00,
2013-04-15 04:31:00,56.5,55.4,29.71,SW,221,3.0,3.0,96,0.00,,,0.37,Wunderground v.1.15,2013-04-15 09:31:00,
2013-04-15 04:35:00,56.5,55.4,29.72,SSW,203,1.0,3.0,96,0.00,,,0.37,Wunderground v.1.15,2013-04-15 09:35:00,
2013-04-15 04:36:00,56.5,55.4,29.72,SSW,203,1.0,3.0,96,0.00,,,0.37,Wunderground v.1.15,2013-04-15 09:36:00,
2013-04-15 04:38:00,56.5,55.4,29.72,SW,222,1.0,3.0,96,0.00,,,0.37,Wunderground v.1.15,2013-04-15 09:38:00,
2013-04-15 04:41:00,56.5,55.4,29.72,SW,215,1.0,2.0,96,0.00,,,0.37,Wunderground v.1.15,2013-04-15 09:41:00,
2013-04-15 04:42:00,56.4,55.3,29.73,SSW,212,1.0,2.0,96,0.00,,,0.37,Wunderground v.1.15,2013-04-15 09:42:00,
2013-04-15 04:45:00,56.4,55.3,29.73,WSW,242,2.0,2.0,96,0.00,,,0.37,Wunderground v.1.15,2013-04-15 09:45:00,
2013-04-15 04:47:00,56.3,55.2,29.73,WSW,239,1.0,2.0,96,0.00,,,0.37,Wunderground v.1.15,2013-04-15 09:47:00,
2013-04-15 04:48:00,56.3,55.2,29.73,WSW,245,1.0,2.0,96,0.00,,,0.37,Wunderground v.1.15,2013-04-15 09:48:00,
2013-04-15 04:49:00,56.3,55.2,29.74,WSW,242,1.0,1.0,96,0.00,,,0.37,Wunderground v.1.15,2013-04-15 09:49:00,
2013-04-15 04:50:00,56.3,55.2,29.74,WSW,238,1.0,1.0,96,0.00,,,0.37,Wunderground v.1.15,2013-04-15 09:50:00,
2013-04-15 04:54:00,56.2,55.4,29.74,WSW,245,1.0,2.0,97,0.00,,,0.37,Wunderground v.1.15,2013-04-15 09:54:00,
2013-04-15 04:55:00,56.2,55.4,29.74,WSW,238,1.0,2.0,97,0.00,,,0.37,Wunderground v.1.15,2013-04-15 09:55:00,
2013-04-15 04:56:00,56.2,55.4,29.74,WSW,246,1.0,2.0,97,0.00,,,0.37,Wunderground v.1.15,2013-04-15 09:56:00,
2013-04-15 05:00:00,56.3,55.5,29.74,WSW,239,1.0,1.0,97,0.00,,,0.37,Wunderground v.1.15,2013-04-15 10:00:00,
2013-04-15 05:02:00,56.3,55.5,29.75,SW,226,0.0,1.0,97,0.00,,,0.37,Wunderground v.1.15,2013-04-15 10:02:00,
2013-04-15 05:04:00,56.2,55.4,29.75,SSW,210,0.0,1.0,97,0.00,,,0.37,Wunderground v.1.15,2013-04-15 10:04:00,
2013-04-15 05:05:00,56.2,55.4,29.75,SSW,207,0.0,1.0,97,0.00,,,0.37,Wunderground v.1.15,2013-04-15 10:05:00,
2013-04-15 05:08:00,56.2,55.4,29.75,SSW,201,0.0,1.0,97,0.00,,,0.37,Wunderground v.1.15,2013-04-15 10:08:00,
2013-04-15 05:10:00,56.2,55.4,29.75,SSW,203,0.0,1.0,97,0.00,,,0.37,Wunderground v.1.15,2013-04-15 10:10:00,
2013-04-15 05:12:00,56.1,55.3,29.75,South,186,0.0,1.0,97,0.00,,,0.37,Wunderground v.1.15,2013-04-15 10:12:00,
2013-04-15 05:13:00,56.1,55.3,29.75,South,183,0.0,1.0,97,0.00,,,0.37,Wunderground v.1.15,2013-04-15 10:13:00,
2013-04-15 05:18:00,56.1,55.3,29.75,SSW,194,0.0,1.0,97,0.00,,,0.37,Wunderground v.1.15,2013-04-15 10:18:00,
2013-04-15 05:19:00,56.1,55.3,29.75,SSE,165,0.0,0.0,97,0.00,,,0.37,Wunderground v.1.15,2013-04-15 10:19:00,
2013-04-15 05:20:00,56.1,55.3,29.75,South,169,0.0,0.0,97,0.00,,,0.37,Wunderground v.1.15,2013-04-15 10:20:00,
2013-04-15 05:22:00,56.1,55.3,29.74,SSE,166,0.0,0.0,97,0.00,,,0.37,Wunderground v.1.15,2013-04-15 10:22:00,
2013-04-15 05:25:00,56.2,55.4,29.74,SE,142,0.0,0.0,97,0.00,,,0.37,Wunderground v.1.15,2013-04-15 10:25:00,
2013-04-15 05:27:00,56.2,55.4,29.74,SE,141,0.0,0.0,97,0.00,,,0.37,Wunderground v.1.15,2013-04-15 10:27:00,
2013-04-15 05:28:00,56.2,55.4,29.74,SSE,155,0.0,0.0,97,0.00,,,0.37,Wunderground v.1.15,2013-04-15 10:28:00,
2013-04-15 05:32:00,56.1,55.3,29.74,SSE,150,0.0,0.0,97,0.00,,,0.37,Wunderground v.1.15,2013-04-15 10:32:00,
2013-04-15 05:33:00,56.1,55.3,29.74,SSE,156,0.0,0.0,97,0.00,,,0.37,Wunderground v.1.15,2013-04-15 10:33:00,
2013-04-15 05:34:00,56.1,55.3,29.74,South,172,0.0,0.0,97,0.00,,,0.37,Wunderground v.1.15,2013-04-15 10:34:00,
2013-04-15 05:36:00,56.1,55.3,29.75,SW,228,0.0,0.0,97,0.00,,,0.37,Wunderground v.1.15,2013-04-15 10:36:00,
2013-04-15 05:38:00,56.1,55.3,29.75,SW,225,0.0,1.0,97,0.00,,,0.37,Wunderground v.1.15,2013-04-15 10:38:00,
2013-04-15 05:40:00,56.1,55.3,29.75,WSW,248,0.0,0.0,97,0.00,,,0.37,Wunderground v.1.15,2013-04-15 10:40:00,
2013-04-15 05:43:00,55.9,55.1,29.75,West,262,0.0,0.0,97,0.00,,,0.37,Wunderground v.1.15,2013-04-15 10:43:00,
2013-04-15 05:44:00,55.9,55.1,29.75,WSW,252,0.0,0.0,97,0.00,,,0.37,Wunderground v.1.15,2013-04-15 10:44:00,
2013-04-15 05:47:00,55.9,55.1,29.74,West,259,0.0,0.0,97,0.00,,,0.37,Wunderground v.1.15,2013-04-15 10:47:00,
2013-04-15 05:49:00,55.9,55.1,29.74,West,259,0.0,0.0,97,0.00,,,0.37,Wunderground v.1.15,2013-04-15 10:49:00,
2013-04-15 05:50:00,55.9,55.1,29.74,WSW,246,0.0,0.0,97,0.00,,,0.37,Wunderground v.1.15,2013-04-15 10:50:00,
2013-04-15 05:51:00,55.9,55.1,29.75,SW,226,0.0,0.0,97,0.00,,,0.37,Wunderground v.1.15,2013-04-15 10:51:00,
2013-04-15 05:54:00,55.8,55.0,29.74,SW,215,0.0,0.0,97,0.00,,,0.37,Wunderground v.1.15,2013-04-15 10:54:00,
2013-04-15 05:57:00,55.7,54.9,29.74,South,173,0.0,1.0,97,0.00,,,0.37,Wunderground v.1.15,2013-04-15 10:57:00,
2013-04-15 06:00:00,55.6,54.8,29.74,South,176,0.0,0.0,97,0.00,,,0.37,Wunderground v.1.15,2013-04-15 11:00:00,
2013-04-15 06:02:00,55.5,54.7,29.74,SSW,195,0.0,0.0,97,0.00,,,0.37,Wunderground v.1.15,2013-04-15 11:02:00,
2013-04-15 06:04:00,55.4,54.6,29.74,SSW,195,0.0,0.0,97,0.00,,,0.37,Wunderground v.1.15,2013-04-15 11:04:00,
2013-04-15 06:05:00,55.4,54.6,29.73,SSW,195,0.0,0.0,97,0.00,,,0.37,Wunderground v.1.15,2013-04-15 11:05:00,
2013-04-15 06:10:00,55.3,54.5,29.74,SSE,158,0.0,0.0,97,0.00,,,0.37,Wunderground v.1.15,2013-04-15 11:10:00,
2013-04-15 06:11:00,55.3,54.5,29.74,SSE,163,0.0,0.0,97,0.00,,,0.37,Wunderground v.1.15,2013-04-15 11:11:00,
2013-04-15 06:15:00,55.4,54.6,29.74,South,173,0.0,0.0,97,0.00,,,0.37,Wunderground v.1.15,2013-04-15 11:15:00,
2013-04-15 06:16:00,55.3,54.5,29.74,South,172,0.0,0.0,97,0.00,,,0.37,Wunderground v.1.15,2013-04-15 11:16:00,
2013-04-15 06:20:00,55.3,54.5,29.74,South,185,0.0,0.0,97,0.00,,,0.37,Wunderground v.1.15,2013-04-15 11:20:00,
2013-04-15 06:22:00,55.3,54.5,29.75,SSW,200,0.0,1.0,97,0.00,,,0.37,Wunderground v.1.15,2013-04-15 11:22:00,
2013-04-15 06:23:00,55.3,54.5,29.75,SSW,203,0.0,1.0,97,0.00,,,0.37,Wunderground v.1.15,2013-04-15 11:23:00,
2013-04-15 06:26:00,55.1,54.3,29.75,South,183,0.0,1.0,97,0.00,,,0.37,Wunderground v.1.15,2013-04-15 11:26:00,
2013-04-15 06:29:00,55.1,54.3,29.75,South,170,1.0,1.0,97,0.00,,,0.37,Wunderground v.1.15,2013-04-15 11:29:00,
2013-04-15 06:32:00,55.3,54.5,29.75,SSE,167,1.0,2.0,97,0.00,,,0.37,Wunderground v.1.15,2013-04-15 11:32:00,
2013-04-15 06:36:00,55.4,54.8,29.75,South,173,1.0,4.0,98,0.00,,,0.37,Wunderground v.1.15,2013-04-15 11:36:00,
2013-04-15 06:37:00,55.5,54.9,29.75,South,181,2.0,4.0,98,0.00,,,0.37,Wunderground v.1.15,2013-04-15 11:37:00,
2013-04-15 06:41:00,55.5,54.9,29.75,South,187,2.0,3.0,98,0.00,,,0.37,Wunderground v.1.15,2013-04-15 11:41:00,
2013-04-15 06:42:00,55.5,54.9,29.75,SSW,200,2.0,3.0,98,0.00,,,0.37,Wunderground v.1.15,2013-04-15 11:42:00,
2013-04-15 06:43:00,55.6,55.0,29.75,SSW,201,2.0,4.0,98,0.00,,,0.37,Wunderground v.1.15,2013-04-15 11:43:00,
2013-04-15 06:47:00,55.6,55.0,29.76,SSW,195,2.0,4.0,98,0.00,,,0.37,Wunderground v.1.15,2013-04-15 11:47:00,
2013-04-15 06:48:00,55.7,55.1,29.76,SSW,205,2.0,4.0,98,0.00,,,0.37,Wunderground v.1.15,2013-04-15 11:48:00,
2013-04-15 06:52:00,55.7,55.1,29.76,SSW,208,2.0,3.0,98,0.00,,,0.37,Wunderground v.1.15,2013-04-15 11:52:00,
2013-04-15 06:55:00,55.8,55.2,29.76,SSW,197,2.0,3.0,98,0.00,,,0.37,Wunderground v.1.15,2013-04-15 11:55:00,
2013-04-15 06:56:00,55.8,55.2,29.76,SW,217,2.0,3.0,98,0.00,,,0.37,Wunderground v.1.15,2013-04-15 11:56:00,
2013-04-15 07:00:00,55.8,55.2,29.77,WSW,238,2.0,3.0,98,0.00,,,0.37,Wunderground v.1.15,2013-04-15 12:00:00,
2013-04-15 07:01:00,55.8,55.2,29.77,SW,225,2.0,4.0,98,0.00,,,0.37,Wunderground v.1.15,2013-04-15 12:01:00,
2013-04-15 07:05:00,55.8,55.2,29.77,SW,219,3.0,4.0,98,0.00,,,0.37,Wunderground v.1.15,2013-04-15 12:05:00,
2013-04-15 07:07:00,55.8,55.2,29.77,SW,214,3.0,4.0,98,0.00,,,0.37,Wunderground v.1.15,2013-04-15 12:07:00,
2013-04-15 07:09:00,55.8,55.2,29.77,SW,224,3.0,4.0,98,0.00,,,0.37,Wunderground v.1.15,2013-04-15 12:09:00,
2013-04-15 07:11:00,55.8,55.2,29.77,SSW,212,3.0,5.0,98,0.00,,,0.37,Wunderground v.1.15,2013-04-15 12:11:00,
2013-04-15 07:13:00,55.9,55.3,29.77,SW,226,3.0,5.0,98,0.00,,,0.37,Wunderground v.1.15,2013-04-15 12:13:00,
2013-04-15 07:18:00,55.9,55.3,29.76,SSW,207,3.0,5.0,98,0.00,,,0.37,Wunderground v.1.15,2013-04-15 12:18:00,
2013-04-15 07:19:00,55.9,55.3,29.77,SSW,200,3.0,5.0,98,0.00,,,0.37,Wunderground v.1.15,2013-04-15 12:19:00,
2013-04-15 07:21:00,55.9,55.3,29.76,South,185,3.0,5.0,98,0.00,,,0.37,Wunderground v.1.15,2013-04-15 12:21:00,
2013-04-15 07:23:00,55.9,55.3,29.77,South,191,3.0,5.0,98,0.00,,,0.37,Wunderground v.1.15,2013-04-15 12:23:00,
2013-04-15 07:25:00,55.9,55.3,29.77,SSE,158,3.0,6.0,98,0.00,,,0.37,Wunderground v.1.15,2013-04-15 12:25:00,
2013-04-15 07:26:00,55.9,55.3,29.77,South,185,3.0,6.0,98,0.00,,,0.37,Wunderground v.1.15,2013-04-15 12:26:00,
2013-04-15 07:28:00,55.9,55.3,29.76,South,173,4.0,6.0,98,0.00,,,0.37,Wunderground v.1.15,2013-04-15 12:28:00,
2013-04-15 07:31:00,55.9,55.3,29.76,South,181,4.0,7.0,98,0.00,,,0.37,Wunderground v.1.15,2013-04-15 12:31:00,
2013-04-15 07:32:00,55.9,55.3,29.76,SSW,198,5.0,7.0,98,0.00,,,0.37,Wunderground v.1.15,2013-04-15 12:32:00,
2013-04-15 07:33:00,55.9,55.3,29.76,South,174,5.0,7.0,98,0.00,,,0.37,Wunderground v.1.15,2013-04-15 12:33:00,
2013-04-15 07:38:00,56.0,55.4,29.77,South,186,5.0,7.0,98,0.00,,,0.37,Wunderground v.1.15,2013-04-15 12:38:00,
2013-04-15 07:40:00,55.9,55.3,29.77,SSE,148,6.0,8.0,98,0.00,,,0.37,Wunderground v.1.15,2013-04-15 12:40:00,
2013-04-15 07:43:00,56.0,55.2,29.77,SSE,168,6.0,8.0,97,0.00,,,0.37,Wunderground v.1.15,2013-04-15 12:43:00,
2013-04-15 07:45:00,56.0,55.2,29.76,SSE,165,6.0,10.0,97,0.00,,,0.37,Wunderground v.1.15,2013-04-15 12:45:00,
2013-04-15 07:46:00,56.0,55.2,29.76,SSE,150,6.0,10.0,97,0.00,,,0.37,Wunderground v.1.15,2013-04-15 12:46:00,
2013-04-15 07:50:00,56.1,55.3,29.77,South,191,6.0,6.0,97,0.00,,,0.37,Wunderground v.1.15,2013-04-15 12:50:00,
2013-04-15 07:52:00,56.1,55.3,29.77,South,181,6.0,7.0,97,0.00,,,0.37,Wunderground v.1.15,2013-04-15 12:52:00,
2013-04-15 07:54:00,56.1,55.3,29.77,South,170,6.0,7.0,97,0.00,,,0.37,Wunderground v.1.15,2013-04-15 12:54:00,
2013-04-15 07:56:00,56.1,55.3,29.78,SSW,203,5.0,7.0,97,0.00,,,0.37,Wunderground v.1.15,2013-04-15 12:56:00,
2013-04-15 07:59:00,56.1,55.3,29.78,SW,233,5.0,7.0,97,0.00,,,0.37,Wunderground v.1.15,2013-04-15 12:59:00,
2013-04-15 08:00:00,56.1,55.3,29.78,South,190,5.0,6.0,97,0.00,,,0.37,Wunderground v.1.15,2013-04-15 13:00:00,
2013-04-15 08:02:00,56.1,55.3,29.77,SSW,200,5.0,6.0,97,0.00,,,0.37,Wunderground v.1.15,2013-04-15 13:02:00,
2013-04-15 08:05:00,56.1,55.3,29.78,SSW,203,5.0,6.0,97,0.00,,,0.37,Wunderground v.1.15,2013-04-15 13:05:00,
2013-04-15 08:07:00,56.1,55.3,29.78,SSW,205,5.0,6.0,97,0.00,,,0.37,Wunderground v.1.15,2013-04-15 13:07:00,
2013-04-15 08:08:00,56.1,55.3,29.78,SSW,200,5.0,6.0,97,0.00,,,0.37,Wunderground v.1.15,2013-04-15 13:08:00,
2013-04-15 08:12:00,56.1,55.3,29.78,SSW,204,5.0,5.0,97,0.00,,,0.37,Wunderground v.1.15,2013-04-15 13:12:00,
2013-04-15 08:13:00,56.1,55.3,29.78,SSW,194,5.0,6.0,97,0.00,,,0.37,Wunderground v.1.15,2013-04-15 13:13:00,
2013-04-15 08:17:00,56.1,55.3,29.78,SSW,196,5.0,6.0,97,0.00,,,0.37,Wunderground v.1.15,2013-04-15 13:17:00,
2013-04-15 08:19:00,56.1,55.3,29.78,SSW,204,5.0,6.0,97,0.00,,,0.37,Wunderground v.1.15,2013-04-15 13:19:00,
2013-04-15 08:22:00,56.1,55.3,29.78,SSW,194,5.0,6.0,97,0.00,,,0.37,Wunderground v.1.15,2013-04-15 13:22:00,
2013-04-15 08:24:00,56.1,55.3,29.78,SSW,205,5.0,6.0,97,0.00,,,0.37,Wunderground v.1.15,2013-04-15 13:24:00,
2013-04-15 08:27:00,56.1,55.0,29.78,SSW,198,5.0,6.0,96,0.00,,,0.37,Wunderground v.1.15,2013-04-15 13:27:00,
2013-04-15 08:28:00,56.1,55.0,29.78,South,187,5.0,6.0,96,0.00,,,0.37,Wunderground v.1.15,2013-04-15 13:28:00,
2013-04-15 08:30:00,56.1,55.0,29.79,SSW,193,5.0,5.0,96,0.00,,,0.37,Wunderground v.1.15,2013-04-15 13:30:00,
2013-04-15 08:35:00,56.2,54.8,29.79,SSW,212,5.0,8.0,95,0.00,,,0.37,Wunderground v.1.15,2013-04-15 13:35:00,
2013-04-15 08:37:00,56.3,54.9,29.79,SSW,195,5.0,8.0,95,0.00,,,0.37,Wunderground v.1.15,2013-04-15 13:37:00,
2013-04-15 08:40:00,56.3,54.9,29.78,SSW,198,5.0,6.0,95,0.00,,,0.37,Wunderground v.1.15,2013-04-15 13:40:00,
2013-04-15 08:42:00,56.3,54.9,29.78,South,188,5.0,6.0,95,0.00,,,0.37,Wunderground v.1.15,2013-04-15 13:42:00,
2013-04-15 08:44:00,56.4,55.0,29.78,SSW,200,4.0,6.0,95,0.00,,,0.37,Wunderground v.1.15,2013-04-15 13:44:00,
2013-04-15 08:47:00,56.4,54.7,29.79,SSW,210,5.0,10.0,94,0.00,,,0.37,Wunderground v.1.15,2013-04-15 13:47:00,
2013-04-15 08:48:00,56.4,54.7,29.79,SW,218,5.0,10.0,94,0.00,,,0.37,Wunderground v.1.15,2013-04-15 13:48:00,
2013-04-15 08:52:00,56.5,54.8,29.79,SSW,203,5.0,6.0,94,0.00,,,0.37,Wunderground v.1.15,2013-04-15 13:52:00,
2013-04-15 08:53:00,56.5,54.8,29.79,South,172,6.0,6.0,94,0.00,,,0.37,Wunderground v.1.15,2013-04-15 13:53:00,
2013-04-15 08:54:00,56.5,54.8,29.79,South,190,6.0,7.0,94,0.00,,,0.37,Wunderground v.1.15,2013-04-15 13:54:00,
2013-04-15 08:57:00,56.5,54.5,29.79,SSW,205,7.0,9.0,93,0.00,,,0.37,Wunderground v.1.15,2013-04-15 13:57:00,
2013-04-15 09:00:00,56.6,54.6,29.79,SW,235,7.0,7.0,93,0.00,,,0.37,Wunderground v.1.15,2013-04-15 14:00:00,
2013-04-15 09:02:00,56.7,54.7,29.80,SW,219,8.0,11.0,93,0.00,,,0.37,Wunderground v.1.15,2013-04-15 14:02:00,
2013-04-15 09:04:00,56.7,54.7,29.80,SW,215,8.0,11.0,93,0.00,,,0.37,Wunderground v.1.15,2013-04-15 14:04:00,
2013-04-15 09:07:00,56.7,54.7,29.79,SSW,211,8.0,11.0,93,0.00,,,0.37,Wunderground v.1.15,2013-04-15 14:07:00,
2013-04-15 09:08:00,56.7,54.7,29.79,SSW,212,7.0,11.0,93,0.00,,,0.37,Wunderground v.1.15,2013-04-15 14:08:00,
2013-04-15 09:09:00,56.7,54.7,29.80,SW,221,7.0,8.0,93,0.00,,,0.37,Wunderground v.1.15,2013-04-15 14:09:00,
2013-04-15 09:12:00,56.8,54.5,29.80,SW,232,7.0,11.0,92,0.00,,,0.37,Wunderground v.1.15,2013-04-15 14:12:00,
2013-04-15 09:17:00,56.8,54.5,29.80,SSW,212,8.0,11.0,92,0.00,,,0.37,Wunderground v.1.15,2013-04-15 14:17:00,
2013-04-15 09:19:00,56.8,54.5,29.80,SSW,207,8.0,11.0,92,0.00,,,0.37,Wunderground v.1.15,2013-04-15 14:19:00,
2013-04-15 09:20:00,56.8,54.2,29.80,SW,224,8.0,8.0,91,0.00,,,0.37,Wunderground v.1.15,2013-04-15 14:20:00,
2013-04-15 09:22:00,56.9,54.6,29.80,SSW,209,8.0,8.0,92,0.00,,,0.37,Wunderground v.1.15,2013-04-15 14:22:00,
2013-04-15 09:25:00,57.0,54.7,29.80,SW,215,6.0,8.0,92,0.00,,,0.37,Wunderground v.1.15,2013-04-15 14:25:00,
2013-04-15 09:27:00,57.0,54.7,29.80,SW,228,6.0,8.0,92,0.00,,,0.37,Wunderground v.1.15,2013-04-15 14:27:00,
2013-04-15 09:28:00,57.0,54.4,29.80,SW,221,6.0,8.0,91,0.00,,,0.37,Wunderground v.1.15,2013-04-15 14:28:00,
2013-04-15 09:30:00,57.0,54.4,29.80,SW,224,6.0,7.0,91,0.00,,,0.37,Wunderground v.1.15,2013-04-15 14:30:00,
2013-04-15 09:33:00,57.0,54.4,29.80,SSW,203,5.0,7.0,91,0.00,,,0.37,Wunderground v.1.15,2013-04-15 14:33:00,
2013-04-15 09:36:00,57.0,54.4,29.80,SW,215,5.0,8.0,91,0.00,,,0.37,Wunderground v.1.15,2013-04-15 14:36:00,
2013-04-15 09:38:00,57.0,54.1,29.80,SSW,210,5.0,8.0,90,0.00,,,0.37,Wunderground v.1.15,2013-04-15 14:38:00,
2013-04-15 09:41:00,57.1,54.2,29.80,SW,217,6.0,7.0,90,0.00,,,0.37,Wunderground v.1.15,2013-04-15 14:41:00,
2013-04-15 09:42:00,57.1,54.2,29.80,SW,225,6.0,7.0,90,0.00,,,0.37,Wunderground v.1.15,2013-04-15 14:42:00,
2013-04-15 09:43:00,57.1,54.2,29.80,SW,218,6.0,7.0,90,0.00,,,0.37,Wunderground v.1.15,2013-04-15 14:43:00,
2013-04-15 09:47:00,57.3,54.7,29.80,SSW,205,6.0,7.0,91,0.00,,,0.37,Wunderground v.1.15,2013-04-15 14:47:00,
2013-04-15 09:49:00,57.3,54.4,29.80,SSW,205,6.0,6.0,90,0.00,,,0.37,Wunderground v.1.15,2013-04-15 14:49:00,
2013-04-15 09:53:00,57.3,54.1,29.80,SW,219,6.0,8.0,89,0.00,,,0.37,Wunderground v.1.15,2013-04-15 14:53:00,
2013-04-15 09:55:00,57.4,54.5,29.80,SSW,210,6.0,8.0,90,0.00,,,0.37,Wunderground v.1.15,2013-04-15 14:55:00,
2013-04-15 09:59:00,57.6,54.4,29.80,SW,231,6.0,9.0,89,0.00,,,0.37,Wunderground v.1.15,2013-04-15 14:59:00,
2013-04-15 10:00:00,57.6,54.7,29.80,SSW,212,6.0,8.0,90,0.00,,,0.37,Wunderground v.1.15,2013-04-15 15:00:00,
2013-04-15 10:01:00,57.6,54.4,29.81,SSW,204,6.0,8.0,89,0.00,,,0.37,Wunderground v.1.15,2013-04-15 15:01:00,
2013-04-15 10:06:00,57.7,54.5,29.80,SW,222,7.0,9.0,89,0.00,,,0.37,Wunderground v.1.15,2013-04-15 15:06:00,
2013-04-15 10:07:00,57.7,54.5,29.80,SW,219,7.0,9.0,89,0.00,,,0.37,Wunderground v.1.15,2013-04-15 15:07:00,
2013-04-15 10:10:00,57.8,54.6,29.80,SSW,211,7.0,7.0,89,0.00,,,0.37,Wunderground v.1.15,2013-04-15 15:10:00,
2013-04-15 10:12:00,57.9,54.7,29.80,SSW,212,7.0,7.0,89,0.00,,,0.37,Wunderground v.1.15,2013-04-15 15:12:00,
2013-04-15 10:14:00,57.9,54.4,29.80,SW,214,6.0,7.0,88,0.00,,,0.37,Wunderground v.1.15,2013-04-15 15:14:00,
2013-04-15 10:15:00,58.0,54.8,29.80,SSW,194,6.0,7.0,89,0.00,,,0.37,Wunderground v.1.15,2013-04-15 15:15:00,
2013-04-15 10:19:00,58.1,54.6,29.79,SW,218,6.0,7.0,88,0.00,,,0.37,Wunderground v.1.15,2013-04-15 15:19:00,
2013-04-15 10:22:00,58.3,55.1,29.80,SSW,208,6.0,7.0,89,0.00,,,0.37,Wunderground v.1.15,2013-04-15 15:22:00,
2013-04-15 10:27:00,58.6,55.1,29.80,SW,225,7.0,11.0,88,0.00,,,0.37,Wunderground v.1.15,2013-04-15 15:27:00,
2013-04-15 10:29:00,58.6,54.7,29.80,SW,215,7.0,11.0,87,0.00,,,0.37,Wunderground v.1.15,2013-04-15 15:29:00,
2013-04-15 10:30:00,58.7,55.2,29.80,SW,222,8.0,8.0,88,0.00,,,0.37,Wunderground v.1.15,2013-04-15 15:30:00,
2013-04-15 10:32:00,58.9,55.0,29.80,SW,226,8.0,11.0,87,0.00,,,0.37,Wunderground v.1.15,2013-04-15 15:32:00,
2013-04-15 10:34:00,58.9,55.0,29.80,SSW,212,8.0,11.0,87,0.00,,,0.37,Wunderground v.1.15,2013-04-15 15:34:00,
2013-04-15 10:38:00,59.1,55.2,29.79,SSW,193,8.0,11.0,87,0.00,,,0.37,Wunderground v.1.15,2013-04-15 15:38:00,
2013-04-15 10:41:00,59.2,55.3,29.79,SSW,203,7.0,8.0,87,0.00,,,0.37,Wunderground v.1.15,2013-04-15 15:41:00,
2013-04-15 10:44:00,59.4,55.2,29.79,WSW,238,7.0,9.0,86,0.00,,,0.37,Wunderground v.1.15,2013-04-15 15:44:00,
2013-04-15 10:50:00,59.7,55.5,29.79,South,190,6.0,6.0,86,0.00,,,0.37,Wunderground v.1.15,2013-04-15 15:50:00,
2013-04-15 10:51:00,59.8,55.6,29.79,SSW,212,7.0,7.0,86,0.00,,,0.37,Wunderground v.1.15,2013-04-15 15:51:00,
2013-04-15 10:54:00,59.9,55.4,29.79,SSW,201,6.0,9.0,85,0.00,,,0.37,Wunderground v.1.15,2013-04-15 15:54:00,
2013-04-15 10:56:00,59.9,54.7,29.79,SW,235,6.0,9.0,83,0.00,,,0.37,Wunderground v.1.15,2013-04-15 15:56:00,
2013-04-15 10:58:00,60.0,54.5,29.79,SW,225,7.0,9.0,82,0.00,,,0.37,Wunderground v.1.15,2013-04-15 15:58:00,
2013-04-15 11:02:00,60.0,54.5,29.79,SW,225,7.0,9.0,82,0.00,,,0.37,Wunderground v.1.15,2013-04-15 16:02:00,
2013-04-15 11:03:00,60.1,54.9,29.79,SW,218,8.0,9.0,83,0.00,,,0.37,Wunderground v.1.15,2013-04-15 16:03:00,
2013-04-15 11:04:00,60.2,55.3,29.79,SW,216,8.0,9.0,84,0.00,,,0.37,Wunderground v.1.15,2013-04-15 16:04:00,
2013-04-15 11:09:00,60.5,54.3,29.80,SW,225,8.0,9.0,80,0.00,,,0.37,Wunderground v.1.15,2013-04-15 16:09:00,
2013-04-15 11:15:00,60.8,55.3,29.80,SW,235,8.0,13.0,82,0.00,,,0.37,Wunderground v.1.15,2013-04-15 16:15:00,
2013-04-15 11:17:00,60.8,54.9,29.80,SW,222,9.0,13.0,81,0.00,,,0.37,Wunderground v.1.15,2013-04-15 16:17:00,
2013-04-15 11:21:00,60.6,54.7,29.80,SW,225,10.0,12.0,81,0.00,,,0.37,Wunderground v.1.15,2013-04-15 16:21:00,
2013-04-15 11:23:00,60.6,55.1,29.80,SW,225,10.0,12.0,82,0.00,,,0.37,Wunderground v.1.15,2013-04-15 16:23:00,
2013-04-15 11:24:00,60.5,55.3,29.80,SW,222,10.0,12.0,83,0.00,,,0.37,Wunderground v.1.15,2013-04-15 16:24:00,
2013-04-15 11:28:00,60.5,54.6,29.80,WSW,248,10.0,12.0,81,0.00,,,0.37,Wunderground v.1.15,2013-04-15 16:28:00,
2013-04-15 11:29:00,60.5,55.3,29.81,SW,235,10.0,13.0,83,0.00,,,0.37,Wunderground v.1.15,2013-04-15 16:29:00,
2013-04-15 11:30:00,60.5,55.0,29.80,SW,224,10.0,11.0,82,0.00,,,0.37,Wunderground v.1.15,2013-04-15 16:30:00,
2013-04-15 11:34:00,60.4,54.5,29.81,SW,217,10.0,14.0,81,0.00,,,0.37,Wunderground v.1.15,2013-04-15 16:34:00,
2013-04-15 11:35:00,60.3,54.4,29.81,SW,220,11.0,14.0,81,0.00,,,0.37,Wunderground v.1.15,2013-04-15 16:35:00,
2013-04-15 11:41:00,60.0,54.5,29.82,West,271,11.0,12.0,82,0.00,,,0.37,Wunderground v.1.15,2013-04-15 16:41:00,
2013-04-15 11:42:00,59.9,53.7,29.82,SW,233,11.0,12.0,80,0.00,,,0.37,Wunderground v.1.15,2013-04-15 16:42:00,
2013-04-15 11:45:00,59.7,52.8,29.81,SW,235,10.0,13.0,78,0.00,,,0.37,Wunderground v.1.15,2013-04-15 16:45:00,
2013-04-15 11:47:00,59.6,53.1,29.80,SW,228,10.0,13.0,79,0.00,,,0.37,Wunderground v.1.15,2013-04-15 16:47:00,
2013-04-15 11:50:00,59.4,52.9,29.79,SW,228,8.0,9.0,79,0.00,,,0.37,Wunderground v.1.15,2013-04-15 16:50:00,
2013-04-15 11:53:00,59.3,53.5,29.80,SW,221,7.0,9.0,81,0.00,,,0.37,Wunderground v.1.15,2013-04-15 16:53:00,
2013-04-15 11:55:00,59.3,53.5,29.81,WSW,238,7.0,11.0,81,0.00,,,0.37,Wunderground v.1.15,2013-04-15 16:55:00,
2013-04-15 11:56:00,59.3,53.1,29.81,SW,236,8.0,11.0,80,0.00,,,0.37,Wunderground v.1.15,2013-04-15 16:56:00,
2013-04-15 12:01:00,59.7,53.5,29.81,SW,235,10.0,12.0,80,0.00,,,0.37,Wunderground v.1.15,2013-04-15 17:01:00,
2013-04-15 12:02:00,59.7,54.2,29.81,SW,226,10.0,12.0,82,0.00,,,0.37,Wunderground v.1.15,2013-04-15 17:02:00,
2013-04-15 12:03:00,59.7,53.5,29.82,SW,225,11.0,15.0,80,0.00,,,0.37,Wunderground v.1.15,2013-04-15 17:03:00,
2013-04-15 12:07:00,59.7,53.9,29.81,SW,235,12.0,15.0,81,0.00,,,0.37,Wunderground v.1.15,2013-04-15 17:07:00,
2013-04-15 12:08:00,59.7,54.2,29.81,SW,235,12.0,15.0,82,0.00,,,0.37,Wunderground v.1.15,2013-04-15 17:08:00,
2013-04-15 12:09:00,59.7,53.9,29.81,WSW,243,11.0,15.0,81,0.00,,,0.37,Wunderground v.1.15,2013-04-15 17:09:00,
2013-04-15 12:13:00,59.7,53.2,29.82,West,264,11.0,14.0,79,0.00,,,0.37,Wunderground v.1.15,2013-04-15 17:13:00,
2013-04-15 12:16:00,59.8,52.2,29.82,West,259,10.0,15.0,76,0.00,,,0.37,Wunderground v.1.15,2013-04-15 17:16:00,
2013-04-15 12:18:00,59.8,50.4,29.82,WSW,238,11.0,15.0,71,0.00,,,0.37,Wunderground v.1.15,2013-04-15 17:18:00,
2013-04-15 12:19:00,59.8,51.9,29.82,WSW,240,11.0,11.0,75,0.00,,,0.37,Wunderground v.1.15,2013-04-15 17:19:00,
2013-04-15 12:21:00,59.7,50.7,29.82,WSW,249,12.0,12.0,72,0.00,,,0.37,Wunderground v.1.15,2013-04-15 17:21:00,
2013-04-15 12:22:00,59.7,51.8,29.82,SW,235,11.0,14.0,75,0.00,,,0.37,Wunderground v.1.15,2013-04-15 17:22:00,
2013-04-15 12:24:00,59.6,51.7,29.82,WSW,242,11.0,14.0,75,0.00,,,0.37,Wunderground v.1.15,2013-04-15 17:24:00,
2013-04-15 12:25:00,59.5,50.8,29.82,WSW,240,12.0,14.0,73,0.00,,,0.37,Wunderground v.1.15,2013-04-15 17:25:00,
2013-04-15 12:27:00,59.4,50.7,29.82,WSW,239,11.0,14.0,73,0.00,,,0.37,Wunderground v.1.15,2013-04-15 17:27:00,
2013-04-15 12:29:00,59.4,50.4,29.82,WSW,245,11.0,14.0,72,0.00,,,0.37,Wunderground v.1.15,2013-04-15 17:29:00,
2013-04-15 12:30:00,59.4,50.4,29.82,WSW,240,11.0,11.0,72,0.00,,,0.37,Wunderground v.1.15,2013-04-15 17:30:00,
2013-04-15 12:32:00,59.5,49.3,29.82,WSW,246,11.0,15.0,69,0.00,,,0.37,Wunderground v.1.15,2013-04-15 17:32:00,
2013-04-15 12:33:00,59.4,48.4,29.82,WSW,250,11.0,15.0,67,0.00,,,0.37,Wunderground v.1.15,2013-04-15 17:33:00,
2013-04-15 12:39:00,59.4,47.6,29.82,WSW,242,12.0,12.0,65,0.00,,,0.37,Wunderground v.1.15,2013-04-15 17:39:00,
2013-04-15 12:42:00,59.4,48.0,29.82,WSW,240,12.0,12.0,66,0.00,,,0.37,Wunderground v.1.15,2013-04-15 17:42:00,
2013-04-15 12:45:00,59.5,48.5,29.82,WSW,241,12.0,13.0,67,0.00,,,0.37,Wunderground v.1.15,2013-04-15 17:45:00,
2013-04-15 12:47:00,59.6,48.6,29.82,WSW,252,12.0,13.0,67,0.00,,,0.37,Wunderground v.1.15,2013-04-15 17:47:00,
2013-04-15 12:49:00,59.6,47.8,29.82,WSW,242,11.0,12.0,65,0.00,,,0.37,Wunderground v.1.15,2013-04-15 17:49:00,
2013-04-15 12:51:00,59.5,48.5,29.83,WSW,242,11.0,12.0,67,0.00,,,0.37,Wunderground v.1.15,2013-04-15 17:51:00,
2013-04-15 12:54:00,59.5,48.5,29.82,SW,232,10.0,15.0,67,0.00,,,0.37,Wunderground v.1.15,2013-04-15 17:54:00,
2013-04-15 12:57:00,59.5,49.7,29.82,SW,236,10.0,15.0,70,0.00,,,0.37,Wunderground v.1.15,2013-04-15 17:57:00,
2013-04-15 12:58:00,59.5,48.5,29.83,WSW,246,10.0,15.0,67,0.00,,,0.37,Wunderground v.1.15,2013-04-15 17:58:00,
2013-04-15 13:00:00,59.5,49.3,29.82,WSW,243,10.0,13.0,69,0.00,,,0.37,Wunderground v.1.15,2013-04-15 18:00:00,
2013-04-15 13:04:00,59.4,49.2,29.82,WSW,240,11.0,14.0,69,0.00,,,0.37,Wunderground v.1.15,2013-04-15 18:04:00,
2013-04-15 13:07:00,59.4,48.8,29.82,West,263,11.0,14.0,68,0.00,,,0.37,Wunderground v.1.15,2013-04-15 18:07:00,
2013-04-15 13:09:00,59.5,50.1,29.82,West,270,10.0,10.0,71,0.00,,,0.37,Wunderground v.1.15,2013-04-15 18:09:00,
2013-04-15 13:11:00,59.6,50.2,29.82,WSW,240,10.0,10.0,71,0.00,,,0.37,Wunderground v.1.15,2013-04-15 18:11:00,
2013-04-15 13:12:00,59.6,50.2,29.82,SW,235,9.0,11.0,71,0.00,,,0.37,Wunderground v.1.15,2013-04-15 18:12:00,
2013-04-15 13:16:00,59.6,49.4,29.83,WSW,256,9.0,11.0,69,0.00,,,0.37,Wunderground v.1.15,2013-04-15 18:16:00,
2013-04-15 13:18:00,59.5,49.7,29.83,West,264,9.0,13.0,70,0.00,,,0.37,Wunderground v.1.15,2013-04-15 18:18:00,
2013-04-15 13:20:00,59.5,50.1,29.83,WSW,253,10.0,10.0,71,0.00,,,0.37,Wunderground v.1.15,2013-04-15 18:20:00,
2013-04-15 13:24:00,59.5,49.7,29.83,WSW,255,10.0,11.0,70,0.00,,,0.37,Wunderground v.1.15,2013-04-15 18:24:00,
2013-04-15 13:27:00,59.4,50.4,29.83,West,269,9.0,11.0,72,0.00,,,0.37,Wunderground v.1.15,2013-04-15 18:27:00,
2013-04-15 13:29:00,59.3,50.6,29.83,WSW,255,9.0,9.0,73,0.00,,,0.37,Wunderground v.1.15,2013-04-15 18:29:00,
2013-04-15 13:30:00,59.3,49.9,29.83,West,262,9.0,11.0,71,0.00,,,0.37,Wunderground v.1.15,2013-04-15 18:30:00,
2013-04-15 13:32:00,59.2,49.4,29.83,WSW,255,9.0,15.0,70,0.00,,,0.37,Wunderground v.1.15,2013-04-15 18:32:00,
2013-04-15 13:36:00,59.1,49.7,29.83,WSW,254,10.0,15.0,71,0.00,,,0.37,Wunderground v.1.15,2013-04-15 18:36:00,
2013-04-15 13:37:00,59.1,49.3,29.84,WSW,252,10.0,15.0,70,0.00,,,0.37,Wunderground v.1.15,2013-04-15 18:37:00,
2013-04-15 13:39:00,59.1,50.8,29.84,SW,215,10.0,10.0,74,0.00,,,0.37,Wunderground v.1.15,2013-04-15 18:39:00,
2013-04-15 13:42:00,59.1,51.2,29.83,WSW,252,10.0,11.0,75,0.00,,,0.37,Wunderground v.1.15,2013-04-15 18:42:00,
2013-04-15 13:44:00,59.0,50.4,29.83,WSW,238,9.0,11.0,73,0.00,,,0.37,Wunderground v.1.15,2013-04-15 18:44:00,
2013-04-15 13:45:00,59.0,50.0,29.83,WSW,247,9.0,11.0,72,0.00,,,0.37,Wunderground v.1.15,2013-04-15 18:45:00,
2013-04-15 13:49:00,59.0,50.7,29.84,West,261,8.0,11.0,74,0.00,,,0.37,Wunderground v.1.15,2013-04-15 18:49:00,
2013-04-15 13:50:00,58.9,50.3,29.84,SW,235,9.0,12.0,73,0.00,,,0.37,Wunderground v.1.15,2013-04-15 18:50:00,
2013-04-15 13:51:00,59.0,50.7,29.83,SW,231,9.0,12.0,74,0.00,,,0.37,Wunderground v.1.15,2013-04-15 18:51:00,
2013-04-15 13:54:00,59.0,50.7,29.84,WSW,255,9.0,12.0,74,0.00,,,0.37,Wunderground v.1.15,2013-04-15 18:54:00,
2013-04-15 13:55:00,59.0,50.0,29.84,SW,235,9.0,12.0,72,0.00,,,0.37,Wunderground v.1.15,2013-04-15 18:55:00,
2013-04-15 13:56:00,59.0,51.1,29.84,WSW,246,9.0,12.0,75,0.00,,,0.37,Wunderground v.1.15,2013-04-15 18:56:00,
2013-04-15 13:58:00,59.0,51.1,29.84,SW,235,9.0,12.0,75,0.00,,,0.37,Wunderground v.1.15,2013-04-15 18:58:00,
2013-04-15 14:02:00,59.0,52.1,29.84,SW,217,8.0,10.0,78,0.00,,,0.37,Wunderground v.1.15,2013-04-15 19:02:00,
2013-04-15 14:04:00,58.9,51.0,29.84,WSW,238,8.0,10.0,75,0.00,,,0.37,Wunderground v.1.15,2013-04-15 19:04:00,
2013-04-15 14:07:00,58.8,50.2,29.84,WSW,250,8.0,10.0,73,0.00,,,0.37,Wunderground v.1.15,2013-04-15 19:07:00,
2013-04-15 14:08:00,58.8,50.5,29.84,SW,232,9.0,10.0,74,0.00,,,0.37,Wunderground v.1.15,2013-04-15 19:08:00,
2013-04-15 14:12:00,58.6,51.1,29.84,SW,235,10.0,11.0,76,0.00,,,0.37,Wunderground v.1.15,2013-04-15 19:12:00,
2013-04-15 14:13:00,58.6,50.3,29.84,SW,236,9.0,11.0,74,0.00,,,0.37,Wunderground v.1.15,2013-04-15 19:13:00,
2013-04-15 14:14:00,58.5,50.2,29.84,SW,235,9.0,11.0,74,0.00,,,0.37,Wunderground v.1.15,2013-04-15 19:14:00,
2013-04-15 14:16:00,58.3,50.4,29.84,SW,227,9.0,11.0,75,0.32,,,0.38,Wunderground v.1.15,2013-04-15 19:16:00,
2013-04-15 14:17:00,58.2,50.3,29.85,WSW,242,9.0,11.0,75,1.26,,,0.41,Wunderground v.1.15,2013-04-15 19:17:00,
2013-04-15 14:20:00,57.8,50.3,29.85,SW,225,9.0,10.0,76,0.24,,,0.41,Wunderground v.1.15,2013-04-15 19:20:00,
2013-04-15 14:21:00,57.6,50.1,29.85,SW,235,9.0,10.0,76,0.17,,,0.41,Wunderground v.1.15,2013-04-15 19:21:00,
2013-04-15 14:23:00,57.3,50.1,29.85,WSW,238,9.0,11.0,77,0.11,,,0.41,Wunderground v.1.15,2013-04-15 19:23:00,
2013-04-15 14:25:00,57.1,50.3,29.86,SW,235,9.0,11.0,78,0.08,,,0.41,Wunderground v.1.15,2013-04-15 19:25:00,
2013-04-15 14:27:00,56.9,50.5,29.85,WSW,243,9.0,11.0,79,0.06,,,0.41,Wunderground v.1.15,2013-04-15 19:27:00,
2013-04-15 14:28:00,56.8,50.7,29.85,WSW,239,9.0,11.0,80,0.06,,,0.41,Wunderground v.1.15,2013-04-15 19:28:00,
2013-04-15 14:30:00,56.6,50.2,29.86,WSW,250,8.0,8.0,79,0.05,,,0.41,Wunderground v.1.15,2013-04-15 19:30:00,
2013-04-15 14:32:00,56.5,50.1,29.85,WSW,252,7.0,8.0,79,0.04,,,0.42,Wunderground v.1.15,2013-04-15 19:32:00,
2013-04-15 14:33:00,56.4,50.0,29.85,WSW,248,7.0,8.0,79,0.04,,,0.42,Wunderground v.1.15,2013-04-15 19:33:00,
2013-04-15 14:35:00,56.3,50.5,29.85,WSW,238,6.0,8.0,81,0.04,,,0.42,Wunderground v.1.15,2013-04-15 19:35:00,
2013-04-15 14:38:00,56.0,50.3,29.86,WSW,258,6.0,8.0,81,0.17,,,0.43,Wunderground v.1.15,2013-04-15 19:38:00,
2013-04-15 14:40:00,55.8,50.4,29.86,WSW,245,6.0,6.0,82,0.13,,,0.43,Wunderground v.1.15,2013-04-15 19:40:00,
2013-04-15 14:41:00,55.7,50.6,29.86,WSW,249,5.0,6.0,83,0.11,,,0.43,Wunderground v.1.15,2013-04-15 19:41:00,
2013-04-15 14:45:00,55.5,50.4,29.86,WSW,245,5.0,6.0,83,0.07,,,0.44,Wunderground v.1.15,2013-04-15 19:45:00,
2013-04-15 14:46:00,55.4,50.3,29.86,WSW,257,5.0,6.0,83,0.07,,,0.44,Wunderground v.1.15,2013-04-15 19:46:00,
2013-04-15 14:48:00,55.3,50.2,29.85,WSW,248,4.0,6.0,83,0.07,,,0.44,Wunderground v.1.15,2013-04-15 19:48:00,
2013-04-15 14:49:00,55.2,50.1,29.85,WSW,255,4.0,6.0,83,0.11,,,0.44,Wunderground v.1.15,2013-04-15 19:49:00,
2013-04-15 14:53:00,55.1,50.0,29.85,West,264,4.0,4.0,83,0.11,,,0.45,Wunderground v.1.15,2013-04-15 19:53:00,
2013-04-15 14:54:00,55.0,50.3,29.85,West,274,4.0,4.0,84,0.11,,,0.45,Wunderground v.1.15,2013-04-15 19:54:00,
2013-04-15 14:56:00,54.9,50.2,29.84,WSW,256,4.0,4.0,84,0.09,,,0.45,Wunderground v.1.15,2013-04-15 19:56:00,
2013-04-15 14:58:00,54.8,50.4,29.84,WNW,288,3.0,4.0,85,0.07,,,0.45,Wunderground v.1.15,2013-04-15 19:58:00,
2013-04-15 14:59:00,54.8,50.4,29.84,WSW,257,3.0,4.0,85,0.06,,,0.45,Wunderground v.1.15,2013-04-15 19:59:00,
2013-04-15 15:02:00,54.9,50.8,29.85,WSW,257,2.0,4.0,86,0.05,,,0.45,Wunderground v.1.15,2013-04-15 20:02:00,
2013-04-15 15:03:00,54.8,50.7,29.85,WSW,245,2.0,4.0,86,0.04,,,0.45,Wunderground v.1.15,2013-04-15 20:03:00,
2013-04-15 15:04:00,54.9,50.8,29.85,SW,235,2.0,4.0,86,0.04,,,0.45,Wunderground v.1.15,2013-04-15 20:04:00,
2013-04-15 15:07:00,54.9,50.8,29.86,SW,224,2.0,4.0,86,0.00,,,0.45,Wunderground v.1.15,2013-04-15 20:07:00,
2013-04-15 15:08:00,54.9,50.8,29.86,SW,228,2.0,4.0,86,0.00,,,0.45,Wunderground v.1.15,2013-04-15 20:08:00,
2013-04-15 15:09:00,54.9,50.8,29.86,SW,232,2.0,4.0,86,0.00,,,0.45,Wunderground v.1.15,2013-04-15 20:09:00,
2013-04-15 15:12:00,54.9,50.8,29.85,SW,232,2.0,2.0,86,0.00,,,0.45,Wunderground v.1.15,2013-04-15 20:12:00,
2013-04-15 15:13:00,54.8,50.7,29.85,SW,228,2.0,2.0,86,0.00,,,0.45,Wunderground v.1.15,2013-04-15 20:13:00,
2013-04-15 15:14:00,54.8,50.7,29.85,SW,228,1.0,2.0,86,0.00,,,0.45,Wunderground v.1.15,2013-04-15 20:14:00,
2013-04-15 15:17:00,54.8,50.7,29.86,WSW,240,1.0,3.0,86,0.00,,,0.45,Wunderground v.1.15,2013-04-15 20:17:00,
2013-04-15 15:18:00,54.7,50.9,29.86,WSW,253,1.0,3.0,87,0.00,,,0.45,Wunderground v.1.15,2013-04-15 20:18:00,
2013-04-15 15:20:00,54.8,51.0,29.86,WSW,248,1.0,1.0,87,0.00,,,0.45,Wunderground v.1.15,2013-04-15 20:20:00,
2013-04-15 15:25:00,54.8,51.0,29.85,SW,226,1.0,2.0,87,0.00,,,0.45,Wunderground v.1.15,2013-04-15 20:25:00,
2013-04-15 15:26:00,54.8,51.0,29.85,SW,233,1.0,2.0,87,0.00,,,0.45,Wunderground v.1.15,2013-04-15 20:26:00,
2013-04-15 15:28:00,54.7,50.9,29.85,WSW,248,1.0,2.0,87,0.00,,,0.45,Wunderground v.1.15,2013-04-15 20:28:00,
2013-04-15 15:30:00,54.7,50.9,29.85,West,264,1.0,1.0,87,0.00,,,0.45,Wunderground v.1.15,2013-04-15 20:30:00,
2013-04-15 15:31:00,54.7,50.9,29.86,West,269,0.0,1.0,87,0.00,,,0.45,Wunderground v.1.15,2013-04-15 20:31:00,
2013-04-15 15:34:00,54.7,51.2,29.86,West,259,0.0,1.0,88,0.00,,,0.45,Wunderground v.1.15,2013-04-15 20:34:00,
2013-04-15 15:35:00,54.7,51.2,29.85,West,267,0.0,1.0,88,0.00,,,0.45,Wunderground v.1.15,2013-04-15 20:35:00,
2013-04-15 15:38:00,54.8,51.3,29.85,WNW,285,0.0,1.0,88,0.00,,,0.45,Wunderground v.1.15,2013-04-15 20:38:00,
2013-04-15 15:39:00,54.8,51.6,29.84,WNW,285,0.0,1.0,89,0.00,,,0.45,Wunderground v.1.15,2013-04-15 20:39:00,
2013-04-15 15:40:00,54.8,51.6,29.85,WNW,285,0.0,0.0,89,0.00,,,0.45,Wunderground v.1.15,2013-04-15 20:40:00,
2013-04-15 15:44:00,54.8,51.9,29.85,WNW,285,0.0,0.0,90,0.00,,,0.45,Wunderground v.1.15,2013-04-15 20:44:00,
2013-04-15 15:45:00,54.8,51.9,29.85,WNW,285,0.0,0.0,90,0.00,,,0.45,Wunderground v.1.15,2013-04-15 20:45:00,
2013-04-15 15:46:00,54.8,51.6,29.85,WNW,293,0.0,0.0,89,0.00,,,0.45,Wunderground v.1.15,2013-04-15 20:46:00,
2013-04-15 15:48:00,54.8,51.6,29.85,West,267,0.0,0.0,89,0.00,,,0.45,Wunderground v.1.15,2013-04-15 20:48:00,
2013-04-15 15:49:00,54.7,51.5,29.85,WSW,252,0.0,0.0,89,0.00,,,0.45,Wunderground v.1.15,2013-04-15 20:49:00,
2013-04-15 15:50:00,54.7,51.5,29.85,West,276,0.0,1.0,89,0.00,,,0.45,Wunderground v.1.15,2013-04-15 20:50:00,
2013-04-15 15:51:00,54.8,51.6,29.85,West,271,0.0,1.0,89,0.00,,,0.45,Wunderground v.1.15,2013-04-15 20:51:00,
2013-04-15 15:53:00,54.8,51.6,29.85,West,260,0.0,1.0,89,0.00,,,0.45,Wunderground v.1.15,2013-04-15 20:53:00,
2013-04-15 15:55:00,54.9,51.7,29.85,West,274,0.0,1.0,89,0.00,,,0.46,Wunderground v.1.15,2013-04-15 20:55:00,
2013-04-15 15:56:00,54.9,51.7,29.85,West,273,0.0,1.0,89,0.00,,,0.46,Wunderground v.1.15,2013-04-15 20:56:00,
2013-04-15 15:57:00,54.9,51.7,29.84,West,273,0.0,1.0,89,0.00,,,0.46,Wunderground v.1.15,2013-04-15 20:57:00,
2013-04-15 15:58:00,54.9,51.7,29.84,West,273,0.0,1.0,89,0.00,,,0.46,Wunderground v.1.15,2013-04-15 20:58:00,
2013-04-15 16:00:00,54.9,51.7,29.84,West,273,0.0,0.0,89,0.00,,,0.46,Wunderground v.1.15,2013-04-15 21:00:00,
2013-04-15 16:02:00,54.9,52.0,29.85,West,267,0.0,1.0,90,0.00,,,0.46,Wunderground v.1.15,2013-04-15 21:02:00,
2013-04-15 16:04:00,54.9,52.0,29.85,West,259,0.0,1.0,90,0.00,,,0.46,Wunderground v.1.15,2013-04-15 21:04:00,
2013-04-15 16:05:00,54.9,52.0,29.85,West,267,0.0,1.0,90,0.00,,,0.46,Wunderground v.1.15,2013-04-15 21:05:00,
2013-04-15 16:07:00,54.9,52.0,29.84,West,281,0.0,1.0,90,0.00,,,0.46,Wunderground v.1.15,2013-04-15 21:07:00,
2013-04-15 16:08:00,54.9,52.0,29.85,West,281,0.0,1.0,90,0.00,,,0.46,Wunderground v.1.15,2013-04-15 21:08:00,
2013-04-15 16:09:00,55.0,52.1,29.84,West,276,0.0,1.0,90,0.00,,,0.46,Wunderground v.1.15,2013-04-15 21:09:00,
2013-04-15 16:10:00,55.0,52.1,29.85,West,278,0.0,0.0,90,0.00,,,0.46,Wunderground v.1.15,2013-04-15 21:10:00,
2013-04-15 16:12:00,55.0,52.4,29.85,West,278,0.0,0.0,91,0.00,,,0.46,Wunderground v.1.15,2013-04-15 21:12:00,
2013-04-15 16:16:00,54.9,52.0,29.85,West,275,0.0,1.0,90,0.00,,,0.46,Wunderground v.1.15,2013-04-15 21:16:00,
2013-04-15 16:17:00,54.9,52.0,29.85,WSW,252,0.0,1.0,90,0.00,,,0.46,Wunderground v.1.15,2013-04-15 21:17:00,
2013-04-15 16:20:00,54.9,52.0,29.85,West,278,0.0,0.0,90,0.00,,,0.46,Wunderground v.1.15,2013-04-15 21:20:00,
2013-04-15 16:22:00,54.9,52.0,29.85,West,278,0.0,1.0,90,0.00,,,0.46,Wunderground v.1.15,2013-04-15 21:22:00,
2013-04-15 16:23:00,54.9,52.0,29.85,WNW,302,0.0,1.0,90,0.00,,,0.46,Wunderground v.1.15,2013-04-15 21:23:00,
2013-04-15 16:24:00,55.0,52.4,29.85,WNW,302,0.0,1.0,91,0.00,,,0.46,Wunderground v.1.15,2013-04-15 21:24:00,
2013-04-15 16:27:00,55.0,52.4,29.85,West,259,0.0,1.0,91,0.00,,,0.46,Wunderground v.1.15,2013-04-15 21:27:00,
2013-04-15 16:30:00,55.0,52.4,29.84,West,260,0.0,0.0,91,0.00,,,0.46,Wunderground v.1.15,2013-04-15 21:30:00,
2013-04-15 16:31:00,55.0,52.4,29.84,West,260,0.0,0.0,91,0.00,,,0.46,Wunderground v.1.15,2013-04-15 21:31:00,
2013-04-15 16:32:00,55.0,52.7,29.84,West,260,0.0,0.0,92,0.00,,,0.46,Wunderground v.1.15,2013-04-15 21:32:00,
2013-04-15 16:33:00,55.0,52.7,29.84,West,260,0.0,0.0,92,0.00,,,0.46,Wunderground v.1.15,2013-04-15 21:33:00,
2013-04-15 16:36:00,54.9,52.6,29.85,West,264,0.0,0.0,92,0.00,,,0.46,Wunderground v.1.15,2013-04-15 21:36:00,
2013-04-15 16:37:00,54.9,52.6,29.85,West,263,0.0,0.0,92,0.00,,,0.46,Wunderground v.1.15,2013-04-15 21:37:00,
2013-04-15 16:40:00,54.9,52.6,29.85,West,263,0.0,0.0,92,0.00,,,0.46,Wunderground v.1.15,2013-04-15 21:40:00,
2013-04-15 16:43:00,54.8,52.5,29.86,West,278,0.0,0.0,92,0.00,,,0.46,Wunderground v.1.15,2013-04-15 21:43:00,
2013-04-15 16:44:00,54.8,52.2,29.86,WNW,288,0.0,0.0,91,0.00,,,0.46,Wunderground v.1.15,2013-04-15 21:44:00,
2013-04-15 16:45:00,54.7,52.1,29.86,WNW,288,0.0,0.0,91,0.00,,,0.46,Wunderground v.1.15,2013-04-15 21:45:00,
2013-04-15 16:47:00,54.7,52.1,29.86,WNW,300,0.0,0.0,91,0.00,,,0.46,Wunderground v.1.15,2013-04-15 21:47:00,
2013-04-15 16:51:00,54.7,51.8,29.86,WNW,301,0.0,0.0,90,0.00,,,0.46,Wunderground v.1.15,2013-04-15 21:51:00,
2013-04-15 16:52:00,54.7,51.8,29.86,NNW,340,0.0,0.0,90,0.00,,,0.46,Wunderground v.1.15,2013-04-15 21:52:00,
2013-04-15 16:56:00,54.5,50.7,29.86,NNW,329,0.0,4.0,87,0.00,,,0.46,Wunderground v.1.15,2013-04-15 21:56:00,
2013-04-15 16:57:00,54.4,50.3,29.86,NW,323,1.0,4.0,86,0.00,,,0.46,Wunderground v.1.15,2013-04-15 21:57:00,
2013-04-15 16:58:00,54.3,50.2,29.85,NNW,340,1.0,4.0,86,0.00,,,0.46,Wunderground v.1.15,2013-04-15 21:58:00,
2013-04-15 16:59:00,54.2,50.1,29.85,North,353,1.0,4.0,86,0.00,,,0.46,Wunderground v.1.15,2013-04-15 21:59:00,
2013-04-15 17:01:00,54.0,49.6,29.85,NE,46,2.0,2.0,85,0.00,,,0.46,Wunderground v.1.15,2013-04-15 22:01:00,
2013-04-15 17:05:00,53.8,49.1,29.84,North,9,2.0,2.0,84,0.00,,,0.46,Wunderground v.1.15,2013-04-15 22:05:00,
2013-04-15 17:06:00,53.7,49.0,29.84,NW,325,2.0,2.0,84,0.00,,,0.46,Wunderground v.1.15,2013-04-15 22:06:00,
2013-04-15 17:07:00,53.6,48.9,29.84,NNE,22,2.0,2.0,84,0.00,,,0.46,Wunderground v.1.15,2013-04-15 22:07:00,
2013-04-15 17:08:00,53.5,48.8,29.84,WNW,302,1.0,2.0,84,0.00,,,0.46,Wunderground v.1.15,2013-04-15 22:08:00,
2013-04-15 17:10:00,53.4,49.0,29.85,NNW,342,1.0,3.0,85,0.00,,,0.46,Wunderground v.1.15,2013-04-15 22:10:00,
2013-04-15 17:11:00,53.4,49.0,29.85,NNW,338,1.0,3.0,85,0.00,,,0.47,Wunderground v.1.15,2013-04-15 22:11:00,
2013-04-15 17:13:00,53.3,49.2,29.86,NW,304,1.0,3.0,86,0.00,,,0.47,Wunderground v.1.15,2013-04-15 22:13:00,
2013-04-15 17:16:00,53.0,48.9,29.85,NNW,338,1.0,3.0,86,0.14,,,0.48,Wunderground v.1.15,2013-04-15 22:16:00,
2013-04-15 17:18:00,52.8,49.0,29.85,NNE,15,2.0,3.0,87,0.14,,,0.48,Wunderground v.1.15,2013-04-15 22:18:00,
2013-04-15 17:21:00,52.6,48.8,29.85,North,354,1.0,2.0,87,0.10,,,0.48,Wunderground v.1.15,2013-04-15 22:21:00,
2013-04-15 17:22:00,52.6,49.1,29.85,North,359,1.0,2.0,88,0.09,,,0.48,Wunderground v.1.15,2013-04-15 22:22:00,
2013-04-15 17:25:00,52.4,48.9,29.84,North,4,1.0,3.0,88,0.06,,,0.48,Wunderground v.1.15,2013-04-15 22:25:00,
2013-04-15 17:26:00,52.4,48.6,29.84,NNE,20,1.0,3.0,87,0.06,,,0.48,Wunderground v.1.15,2013-04-15 22:26:00,
2013-04-15 17:27:00,52.3,48.5,29.84,NNW,342,1.0,3.0,87,0.05,,,0.48,Wunderground v.1.15,2013-04-15 22:27:00,
2013-04-15 17:28:00,52.3,48.5,29.84,North,349,1.0,3.0,87,0.05,,,0.48,Wunderground v.1.15,2013-04-15 22:28:00,
2013-04-15 17:30:00,52.3,48.5,29.84,North,4,2.0,2.0,87,0.04,,,0.48,Wunderground v.1.15,2013-04-15 22:30:00,
2013-04-15 17:34:00,52.2,48.8,29.84,NNW,338,2.0,2.0,88,0.00,,,0.48,Wunderground v.1.15,2013-04-15 22:34:00,
2013-04-15 17:35:00,52.3,48.9,29.84,North,357,2.0,3.0,88,0.00,,,0.48,Wunderground v.1.15,2013-04-15 22:35:00,
2013-04-15 17:37:00,52.2,48.8,29.84,NNW,342,2.0,4.0,88,0.00,,,0.48,Wunderground v.1.15,2013-04-15 22:37:00,
2013-04-15 17:40:00,52.2,48.8,29.84,NNE,27,2.0,4.0,88,0.00,,,0.48,Wunderground v.1.15,2013-04-15 22:40:00,
2013-04-15 17:42:00,52.0,48.3,29.83,North,349,2.0,4.0,87,0.00,,,0.48,Wunderground v.1.15,2013-04-15 22:42:00,
2013-04-15 17:44:00,51.9,47.8,29.83,NNW,341,2.0,4.0,86,0.00,,,0.48,Wunderground v.1.15,2013-04-15 22:44:00,
2013-04-15 17:48:00,51.5,46.5,29.83,NE,42,2.0,4.0,83,0.00,,,0.48,Wunderground v.1.15,2013-04-15 22:48:00,
2013-04-15 17:49:00,51.4,46.4,29.84,NNW,338,2.0,4.0,83,0.00,,,0.48,Wunderground v.1.15,2013-04-15 22:49:00,
2013-04-15 17:51:00,51.2,46.2,29.84,NNW,342,2.0,7.0,83,0.00,,,0.48,Wunderground v.1.15,2013-04-15 22:51:00,
2013-04-15 17:55:00,50.8,45.8,29.85,NNW,346,3.0,7.0,83,0.00,,,0.48,Wunderground v.1.15,2013-04-15 22:55:00,
2013-04-15 17:56:00,50.7,46.0,29.85,NW,324,3.0,7.0,84,0.00,,,0.48,Wunderground v.1.15,2013-04-15 22:56:00,
2013-04-15 18:00:00,50.4,45.4,29.85,NNW,348,4.0,4.0,83,0.00,,,0.48,Wunderground v.1.15,2013-04-15 23:00:00,
2013-04-15 18:02:00,50.3,45.3,29.86,North,351,4.0,4.0,83,0.00,,,0.48,Wunderground v.1.15,2013-04-15 23:02:00,
2013-04-15 18:04:00,50.2,45.6,29.86,NNW,337,4.0,4.0,84,0.00,,,0.48,Wunderground v.1.15,2013-04-15 23:04:00,
2013-04-15 18:05:00,50.2,45.9,29.86,NNW,327,3.0,4.0,85,0.00,,,0.48,Wunderground v.1.15,2013-04-15 23:05:00,
2013-04-15 18:09:00,50.1,46.1,29.86,North,354,2.0,4.0,86,0.00,,,0.48,Wunderground v.1.15,2013-04-15 23:09:00,
2013-04-15 18:11:00,50.0,46.0,29.86,NNW,346,2.0,2.0,86,0.00,,,0.48,Wunderground v.1.15,2013-04-15 23:11:00,
2013-04-15 18:12:00,50.0,46.0,29.86,NNE,16,1.0,2.0,86,0.00,,,0.48,Wunderground v.1.15,2013-04-15 23:12:00,
2013-04-15 18:15:00,49.9,45.9,29.87,NNE,12,1.0,2.0,86,0.00,,,0.48,Wunderground v.1.15,2013-04-15 23:15:00,
2013-04-15 18:17:00,49.8,45.5,29.87,NNW,340,1.0,2.0,85,0.00,,,0.48,Wunderground v.1.15,2013-04-15 23:17:00,
2013-04-15 18:18:00,49.8,45.5,29.87,NNE,16,1.0,2.0,85,0.00,,,0.48,Wunderground v.1.15,2013-04-15 23:18:00,
2013-04-15 18:20:00,49.7,45.4,29.87,NNW,342,1.0,1.0,85,0.00,,,0.48,Wunderground v.1.15,2013-04-15 23:20:00,
2013-04-15 18:22:00,49.6,45.3,29.87,NNW,347,1.0,1.0,85,0.00,,,0.48,Wunderground v.1.15,2013-04-15 23:22:00,
2013-04-15 18:23:00,49.6,45.3,29.87,NNW,348,1.0,1.0,85,0.00,,,0.48,Wunderground v.1.15,2013-04-15 23:23:00,
2013-04-15 18:25:00,49.5,45.2,29.87,NNW,338,1.0,1.0,85,0.00,,,0.48,Wunderground v.1.15,2013-04-15 23:25:00,
2013-04-15 18:26:00,49.5,45.2,29.87,North,6,0.0,2.0,85,0.00,,,0.48,Wunderground v.1.15,2013-04-15 23:26:00,
2013-04-15 18:29:00,49.5,44.9,29.87,North,352,1.0,2.0,84,0.00,,,0.48,Wunderground v.1.15,2013-04-15 23:29:00,
2013-04-15 18:31:00,49.5,45.2,29.87,North,352,1.0,1.0,85,0.00,,,0.48,Wunderground v.1.15,2013-04-15 23:31:00,
2013-04-15 18:32:00,49.4,44.8,29.87,North,349,1.0,2.0,84,0.00,,,0.48,Wunderground v.1.15,2013-04-15 23:32:00,
2013-04-15 18:36:00,49.3,44.7,29.88,NNW,337,1.0,2.0,84,0.00,,,0.48,Wunderground v.1.15,2013-04-15 23:36:00,
2013-04-15 18:37:00,49.3,44.7,29.88,NNW,347,1.0,2.0,84,0.00,,,0.48,Wunderground v.1.15,2013-04-15 23:37:00,
2013-04-15 18:39:00,49.3,44.7,29.87,NNE,27,0.0,2.0,84,0.00,,,0.48,Wunderground v.1.15,2013-04-15 23:39:00,
2013-04-15 18:41:00,49.3,45.0,29.87,NNW,338,0.0,0.0,85,0.00,,,0.48,Wunderground v.1.15,2013-04-15 23:41:00,
2013-04-15 18:42:00,49.3,45.0,29.87,NNW,338,0.0,0.0,85,0.00,,,0.48,Wunderground v.1.15,2013-04-15 23:42:00,
2013-04-15 18:46:00,49.2,44.9,29.87,North,4,0.0,0.0,85,0.00,,,0.48,Wunderground v.1.15,2013-04-15 23:46:00,
2013-04-15 18:49:00,49.1,44.8,29.87,North,1,0.0,0.0,85,0.00,,,0.48,Wunderground v.1.15,2013-04-15 23:49:00,
2013-04-15 18:50:00,49.1,44.8,29.87,North,1,0.0,0.0,85,0.00,,,0.48,Wunderground v.1.15,2013-04-15 23:50:00,
2013-04-15 18:51:00,49.1,44.8,29.87,North,1,0.0,0.0,85,0.00,,,0.48,Wunderground v.1.15,2013-04-15 23:51:00,
2013-04-15 18:56:00,49.0,44.7,29.88,NNW,338,0.0,0.0,85,0.00,,,0.48,Wunderground v.1.15,2013-04-15 23:56:00,
2013-04-15 18:57:00,49.0,44.7,29.88,NNW,340,0.0,0.0,85,0.00,,,0.48,Wunderground v.1.15,2013-04-15 23:57:00,
2013-04-15 18:58:00,49.0,45.0,29.88,NNE,27,0.0,0.0,86,0.00,,,0.48,Wunderground v.1.15,2013-04-15 23:58:00,
2013-04-15 19:00:00,48.9,44.6,29.88,NNW,340,0.0,0.0,85,0.00,,,0.48,Wunderground v.1.15,2013-04-16 00:00:00,
2013-04-15 19:02:00,48.9,44.6,29.88,NNE,20,0.0,0.0,85,0.00,,,0.48,Wunderground v.1.15,2013-04-16 00:02:00,
2013-04-15 19:03:00,48.8,44.5,29.88,NNE,13,0.0,0.0,85,0.00,,,0.48,Wunderground v.1.15,2013-04-16 00:03:00,
2013-04-15 19:04:00,48.8,44.5,29.88,NNE,13,0.0,0.0,85,0.00,,,0.48,Wunderground v.1.15,2013-04-16 00:04:00,
2013-04-15 19:07:00,48.7,43.8,29.88,NNE,26,0.0,0.0,83,0.00,,,0.48,Wunderground v.1.15,2013-04-16 00:07:00,
2013-04-15 19:09:00,48.7,43.8,29.88,NNE,23,0.0,0.0,83,0.00,,,0.48,Wunderground v.1.15,2013-04-16 00:09:00,
2013-04-15 19:12:00,48.6,43.4,29.88,NNE,22,0.0,0.0,82,0.00,,,0.48,Wunderground v.1.15,2013-04-16 00:12:00,
2013-04-15 19:13:00,48.6,43.7,29.88,NNE,22,0.0,0.0,83,0.00,,,0.48,Wunderground v.1.15,2013-04-16 00:13:00,
2013-04-15 19:14:00,48.6,43.7,29.88,NNE,22,0.0,0.0,83,0.00,,,0.48,Wunderground v.1.15,2013-04-16 00:14:00,
2013-04-15 19:16:00,48.6,44.0,29.88,North,4,0.0,0.0,84,0.00,,,0.48,Wunderground v.1.15,2013-04-16 00:16:00,
2013-04-15 19:17:00,48.6,43.7,29.88,North,5,0.0,0.0,83,0.00,,,0.48,Wunderground v.1.15,2013-04-16 00:17:00,
2013-04-15 19:19:00,48.5,43.3,29.88,NNE,23,0.0,0.0,82,0.00,,,0.48,Wunderground v.1.15,2013-04-16 00:19:00,
2013-04-15 19:20:00,48.5,43.3,29.88,NNE,23,0.0,0.0,82,0.00,,,0.48,Wunderground v.1.15,2013-04-16 00:20:00,
2013-04-15 19:21:00,48.5,43.3,29.88,NNE,22,0.0,0.0,82,0.00,,,0.48,Wunderground v.1.15,2013-04-16 00:21:00,
2013-04-15 19:24:00,48.5,43.6,29.89,NNE,22,0.0,0.0,83,0.00,,,0.48,Wunderground v.1.15,2013-04-16 00:24:00,
2013-04-15 19:25:00,48.5,43.6,29.89,NNE,33,0.0,0.0,83,0.00,,,0.48,Wunderground v.1.15,2013-04-16 00:25:00,
2013-04-15 19:27:00,48.5,43.6,29.89,NNE,20,0.0,0.0,83,0.00,,,0.48,Wunderground v.1.15,2013-04-16 00:27:00,
2013-04-15 19:28:00,48.5,43.6,29.89,NNE,20,0.0,0.0,83,0.00,,,0.48,Wunderground v.1.15,2013-04-16 00:28:00,
2013-04-15 19:29:00,48.5,43.6,29.89,NNW,343,0.0,0.0,83,0.00,,,0.48,Wunderground v.1.15,2013-04-16 00:29:00,
2013-04-15 19:30:00,48.4,43.5,29.89,NW,315,0.0,0.0,83,0.00,,,0.48,Wunderground v.1.15,2013-04-16 00:30:00,
2013-04-15 19:34:00,48.4,42.8,29.89,ENE,75,0.0,0.0,81,0.00,,,0.48,Wunderground v.1.15,2013-04-16 00:34:00,
2013-04-15 19:35:00,48.4,42.8,29.89,ENE,75,0.0,0.0,81,0.00,,,0.48,Wunderground v.1.15,2013-04-16 00:35:00,
2013-04-15 19:40:00,48.4,43.2,29.89,NNW,337,0.0,0.0,82,0.00,,,0.48,Wunderground v.1.15,2013-04-16 00:40:00,
2013-04-15 19:41:00,48.4,43.2,29.89,NNW,338,0.0,0.0,82,0.00,,,0.48,Wunderground v.1.15,2013-04-16 00:41:00,
2013-04-15 19:42:00,48.4,43.5,29.89,NNE,22,0.0,0.0,83,0.00,,,0.48,Wunderground v.1.15,2013-04-16 00:42:00,
2013-04-15 19:45:00,48.3,43.4,29.89,NNW,335,0.0,0.0,83,0.00,,,0.48,Wunderground v.1.15,2013-04-16 00:45:00,
2013-04-15 19:46:00,48.3,43.4,29.89,NNW,335,0.0,0.0,83,0.00,,,0.48,Wunderground v.1.15,2013-04-16 00:46:00,
2013-04-15 19:51:00,48.2,43.3,29.89,NNE,33,0.0,0.0,83,0.00,,,0.48,Wunderground v.1.15,2013-04-16 00:51:00,
2013-04-15 19:52:00,48.2,43.3,29.89,NNW,335,0.0,0.0,83,0.00,,,0.48,Wunderground v.1.15,2013-04-16 00:52:00,
2013-04-15 19:53:00,48.2,43.3,29.90,NW,322,0.0,0.0,83,0.00,,,0.48,Wunderground v.1.15,2013-04-16 00:53:00,
2013-04-15 19:55:00,48.2,43.3,29.90,North,360,0.0,0.0,83,0.00,,,0.48,Wunderground v.1.15,2013-04-16 00:55:00,
2013-04-15 19:56:00,48.2,43.3,29.90,North,360,0.0,0.0,83,0.00,,,0.48,Wunderground v.1.15,2013-04-16 00:56:00,
2013-04-15 19:59:00,48.1,43.2,29.90,North,360,0.0,0.0,83,0.00,,,0.48,Wunderground v.1.15,2013-04-16 00:59:00,
2013-04-15 20:02:00,48.1,43.5,29.90,North,359,0.0,0.0,84,0.00,,,0.48,Wunderground v.1.15,2013-04-16 01:02:00,
2013-04-15 20:05:00,48.1,43.5,29.91,North,358,0.0,0.0,84,0.00,,,0.48,Wunderground v.1.15,2013-04-16 01:05:00,
2013-04-15 20:06:00,48.1,43.5,29.91,North,358,0.0,0.0,84,0.00,,,0.48,Wunderground v.1.15,2013-04-16 01:06:00,
2013-04-15 20:07:00,48.1,43.5,29.91,North,358,0.0,0.0,84,0.00,,,0.48,Wunderground v.1.15,2013-04-16 01:07:00,
2013-04-15 20:09:00,48.1,43.8,29.91,North,359,0.0,0.0,85,0.00,,,0.48,Wunderground v.1.15,2013-04-16 01:09:00,
2013-04-15 20:11:00,48.1,43.8,29.91,North,349,0.0,0.0,85,0.00,,,0.48,Wunderground v.1.15,2013-04-16 01:11:00,
2013-04-15 20:12:00,48.1,43.8,29.91,North,349,0.0,0.0,85,0.00,,,0.48,Wunderground v.1.15,2013-04-16 01:12:00,
2013-04-15 20:16:00,48.1,43.8,29.92,NNW,328,0.0,0.0,85,0.00,,,0.48,Wunderground v.1.15,2013-04-16 01:16:00,
2013-04-15 20:18:00,48.1,44.1,29.92,NW,325,0.0,0.0,86,0.00,,,0.48,Wunderground v.1.15,2013-04-16 01:18:00,
2013-04-15 20:20:00,48.2,44.5,29.93,NNW,327,0.0,0.0,87,0.00,,,0.48,Wunderground v.1.15,2013-04-16 01:20:00,
2013-04-15 20:21:00,48.2,44.2,29.92,North,355,0.0,0.0,86,0.00,,,0.48,Wunderground v.1.15,2013-04-16 01:21:00,
2013-04-15 20:23:00,48.1,44.1,29.92,North,355,0.0,0.0,86,0.00,,,0.48,Wunderground v.1.15,2013-04-16 01:23:00,
2013-04-15 20:24:00,48.1,44.1,29.92,North,352,0.0,0.0,86,0.00,,,0.48,Wunderground v.1.15,2013-04-16 01:24:00,
2013-04-15 20:29:00,48.2,44.5,29.92,North,359,0.0,0.0,87,0.00,,,0.48,Wunderground v.1.15,2013-04-16 01:29:00,
2013-04-15 20:30:00,48.2,44.5,29.92,North,357,0.0,0.0,87,0.00,,,0.48,Wunderground v.1.15,2013-04-16 01:30:00,
2013-04-15 20:31:00,48.1,44.4,29.93,NNW,327,0.0,0.0,87,0.00,,,0.48,Wunderground v.1.15,2013-04-16 01:31:00,
2013-04-15 20:35:00,48.1,44.4,29.92,North,1,0.0,0.0,87,0.00,,,0.48,Wunderground v.1.15,2013-04-16 01:35:00,
2013-04-15 20:36:00,48.1,44.4,29.92,North,1,0.0,0.0,87,0.00,,,0.48,Wunderground v.1.15,2013-04-16 01:36:00,
2013-04-15 20:38:00,48.0,44.3,29.93,NNW,342,0.0,0.0,87,0.00,,,0.48,Wunderground v.1.15,2013-04-16 01:38:00,
2013-04-15 20:40:00,48.1,44.4,29.93,NNW,338,0.0,0.0,87,0.00,,,0.48,Wunderground v.1.15,2013-04-16 01:40:00,
2013-04-15 20:42:00,48.1,44.7,29.93,NNW,346,0.0,1.0,88,0.00,,,0.48,Wunderground v.1.15,2013-04-16 01:42:00,
2013-04-15 20:44:00,48.1,44.7,29.94,NNW,345,0.0,1.0,88,0.00,,,0.48,Wunderground v.1.15,2013-04-16 01:44:00,
2013-04-15 20:45:00,48.1,44.7,29.94,NNW,335,0.0,1.0,88,0.00,,,0.48,Wunderground v.1.15,2013-04-16 01:45:00,
2013-04-15 20:47:00,48.1,45.0,29.94,NNW,342,0.0,2.0,89,0.00,,,0.48,Wunderground v.1.15,2013-04-16 01:47:00,
2013-04-15 20:52:00,47.9,44.5,29.95,NNE,28,1.0,1.0,88,0.00,,,0.48,Wunderground v.1.15,2013-04-16 01:52:00,
2013-04-15 20:54:00,47.8,44.4,29.94,NNW,342,1.0,1.0,88,0.00,,,0.48,Wunderground v.1.15,2013-04-16 01:54:00,
2013-04-15 20:55:00,47.8,44.4,29.94,NNW,340,1.0,1.0,88,0.00,,,0.48,Wunderground v.1.15,2013-04-16 01:55:00,
2013-04-15 20:58:00,47.6,44.2,29.95,NNE,33,1.0,1.0,88,0.00,,,0.48,Wunderground v.1.15,2013-04-16 01:58:00,
2013-04-15 21:00:00,47.5,44.1,29.96,North,349,1.0,1.0,88,0.00,,,0.48,Wunderground v.1.15,2013-04-16 02:00:00,
2013-04-15 21:02:00,47.4,43.7,29.96,North,349,1.0,3.0,87,0.00,,,0.48,Wunderground v.1.15,2013-04-16 02:02:00,
2013-04-15 21:04:00,47.3,43.6,29.96,NNW,342,1.0,3.0,87,0.00,,,0.49,Wunderground v.1.15,2013-04-16 02:04:00,
2013-04-15 21:06:00,47.2,43.5,29.96,NNW,346,1.0,3.0,87,0.00,,,0.49,Wunderground v.1.15,2013-04-16 02:06:00,
2013-04-15 21:07:00,47.2,43.5,29.96,North,349,1.0,3.0,87,0.00,,,0.49,Wunderground v.1.15,2013-04-16 02:07:00,
2013-04-15 21:08:00,47.1,43.4,29.96,NNW,347,1.0,3.0,87,0.00,,,0.49,Wunderground v.1.15,2013-04-16 02:08:00,
2013-04-15 21:11:00,46.8,43.1,29.96,NNW,342,1.0,1.0,87,0.00,,,0.49,Wunderground v.1.15,2013-04-16 02:11:00,
2013-04-15 21:13:00,46.7,43.3,29.96,NNE,33,1.0,1.0,88,0.00,,,0.49,Wunderground v.1.15,2013-04-16 02:13:00,
2013-04-15 21:14:00,46.6,43.2,29.96,NNW,346,1.0,1.0,88,0.00,,,0.49,Wunderground v.1.15,2013-04-16 02:14:00,
2013-04-15 21:15:00,46.6,43.2,29.96,NNW,347,1.0,1.0,88,0.00,,,0.49,Wunderground v.1.15,2013-04-16 02:15:00,
2013-04-15 21:16:00,46.5,43.1,29.95,NNE,16,0.0,1.0,88,0.00,,,0.49,Wunderground v.1.15,2013-04-16 02:16:00,
2013-04-15 21:19:00,46.4,43.0,29.96,North,349,0.0,1.0,88,0.00,,,0.49,Wunderground v.1.15,2013-04-16 02:19:00,
2013-04-15 21:20:00,46.3,42.9,29.96,North,349,0.0,0.0,88,0.00,,,0.49,Wunderground v.1.15,2013-04-16 02:20:00,
2013-04-15 21:24:00,46.3,43.2,29.97,NNW,342,0.0,1.0,89,0.00,,,0.49,Wunderground v.1.15,2013-04-16 02:24:00,
2013-04-15 21:25:00,46.3,43.2,29.97,North,359,0.0,1.0,89,0.00,,,0.49,Wunderground v.1.15,2013-04-16 02:25:00,
2013-04-15 21:26:00,46.3,42.9,29.97,NNW,342,0.0,1.0,88,0.00,,,0.49,Wunderground v.1.15,2013-04-16 02:26:00,
2013-04-15 21:27:00,46.2,42.8,29.97,North,359,0.0,1.0,88,0.00,,,0.49,Wunderground v.1.15,2013-04-16 02:27:00,
2013-04-15 21:29:00,46.2,42.8,29.96,North,356,0.0,1.0,88,0.00,,,0.49,Wunderground v.1.15,2013-04-16 02:29:00,
2013-04-15 21:32:00,46.2,43.1,29.96,NNW,332,0.0,1.0,89,0.00,,,0.49,Wunderground v.1.15,2013-04-16 02:32:00,
2013-04-15 21:34:00,46.1,42.7,29.96,NNW,342,0.0,1.0,88,0.00,,,0.49,Wunderground v.1.15,2013-04-16 02:34:00,
2013-04-15 21:36:00,46.2,42.8,29.97,NNW,340,0.0,1.0,88,0.00,,,0.49,Wunderground v.1.15,2013-04-16 02:36:00,
2013-04-15 21:38:00,46.2,43.1,29.97,NNW,335,0.0,1.0,89,0.00,,,0.49,Wunderground v.1.15,2013-04-16 02:38:00,
2013-04-15 21:39:00,46.2,43.1,29.97,North,350,0.0,1.0,89,0.00,,,0.49,Wunderground v.1.15,2013-04-16 02:39:00,
2013-04-15 21:42:00,46.2,43.1,29.98,NW,324,0.0,0.0,89,0.00,,,0.49,Wunderground v.1.15,2013-04-16 02:42:00,
2013-04-15 21:45:00,46.1,42.7,29.98,NNW,342,0.0,1.0,88,0.00,,,0.49,Wunderground v.1.15,2013-04-16 02:45:00,
2013-04-15 21:48:00,46.0,42.0,29.99,NNW,335,0.0,2.0,86,0.00,,,0.49,Wunderground v.1.15,2013-04-16 02:48:00,
2013-04-15 21:49:00,45.9,41.9,29.99,NW,305,0.0,2.0,86,0.00,,,0.50,Wunderground v.1.15,2013-04-16 02:49:00,
2013-04-15 21:51:00,45.9,41.9,30.00,WNW,295,0.0,0.0,86,0.00,,,0.50,Wunderground v.1.15,2013-04-16 02:51:00,
2013-04-15 21:55:00,45.6,42.0,29.99,NNW,342,0.0,0.0,87,0.00,,,0.50,Wunderground v.1.15,2013-04-16 02:55:00,
2013-04-15 21:56:00,45.5,42.2,29.99,NNW,342,0.0,0.0,88,0.00,,,0.50,Wunderground v.1.15,2013-04-16 02:56:00,
2013-04-15 21:59:00,45.3,42.0,29.99,NNW,346,0.0,0.0,88,0.08,,,0.51,Wunderground v.1.15,2013-04-16 02:59:00,
2013-04-15 22:00:00,45.2,41.9,29.99,NNW,346,0.0,0.0,88,0.08,,,0.51,Wunderground v.1.15,2013-04-16 03:00:00,
2013-04-15 22:01:00,45.2,42.2,29.99,North,354,0.0,0.0,89,0.08,,,0.51,Wunderground v.1.15,2013-04-16 03:01:00,
2013-04-15 22:02:00,45.1,42.1,29.99,NNW,341,0.0,0.0,89,0.08,,,0.51,Wunderground v.1.15,2013-04-16 03:02:00,
2013-04-15 22:06:00,45.0,42.2,29.99,North,5,0.0,0.0,90,0.06,,,0.51,Wunderground v.1.15,2013-04-16 03:06:00,
2013-04-15 22:07:00,45.0,42.2,29.99,North,5,0.0,0.0,90,0.06,,,0.51,Wunderground v.1.15,2013-04-16 03:07:00,
2013-04-15 22:08:00,45.0,42.2,29.99,NNW,346,0.0,0.0,90,0.05,,,0.51,Wunderground v.1.15,2013-04-16 03:08:00,
2013-04-15 22:09:00,44.9,42.1,29.99,NW,317,0.0,0.0,90,0.05,,,0.51,Wunderground v.1.15,2013-04-16 03:09:00,
2013-04-15 22:13:00,44.9,42.1,29.98,North,358,0.0,0.0,90,0.04,,,0.51,Wunderground v.1.15,2013-04-16 03:13:00,
2013-04-15 22:14:00,44.8,42.3,29.98,NE,43,0.0,0.0,91,0.00,,,0.51,Wunderground v.1.15,2013-04-16 03:14:00,
2013-04-15 22:19:00,44.8,42.3,29.98,NNW,335,0.0,0.0,91,0.00,,,0.51,Wunderground v.1.15,2013-04-16 03:19:00,
2013-04-15 22:20:00,44.8,42.3,29.98,NW,316,0.0,0.0,91,0.00,,,0.51,Wunderground v.1.15,2013-04-16 03:20:00,
2013-04-15 22:21:00,44.8,42.3,29.98,NNW,344,0.0,0.0,91,0.00,,,0.51,Wunderground v.1.15,2013-04-16 03:21:00,
2013-04-15 22:22:00,44.8,42.3,29.98,North,353,0.0,0.0,91,0.00,,,0.51,Wunderground v.1.15,2013-04-16 03:22:00,
2013-04-15 22:27:00,44.8,42.6,29.98,North,352,0.0,0.0,92,0.00,,,0.51,Wunderground v.1.15,2013-04-16 03:27:00,
2013-04-15 22:28:00,44.8,42.6,29.98,NNE,27,0.0,0.0,92,0.00,,,0.51,Wunderground v.1.15,2013-04-16 03:28:00,
2013-04-15 22:29:00,44.8,42.6,29.98,North,356,0.0,0.0,92,0.00,,,0.51,Wunderground v.1.15,2013-04-16 03:29:00,
2013-04-15 22:30:00,44.8,42.6,29.98,NNE,22,0.0,0.0,92,0.00,,,0.51,Wunderground v.1.15,2013-04-16 03:30:00,
2013-04-15 22:34:00,44.6,42.1,29.97,NNE,16,0.0,1.0,91,0.00,,,0.51,Wunderground v.1.15,2013-04-16 03:34:00,
2013-04-15 22:35:00,44.6,42.1,29.97,North,1,0.0,1.0,91,0.00,,,0.51,Wunderground v.1.15,2013-04-16 03:35:00,
2013-04-15 22:36:00,44.5,42.0,29.97,NNE,23,0.0,1.0,91,0.00,,,0.51,Wunderground v.1.15,2013-04-16 03:36:00,
2013-04-15 22:40:00,44.4,41.9,29.97,North,360,0.0,0.0,91,0.00,,,0.51,Wunderground v.1.15,2013-04-16 03:40:00,
2013-04-15 22:42:00,44.4,41.9,29.97,North,351,0.0,0.0,91,0.00,,,0.51,Wunderground v.1.15,2013-04-16 03:42:00,
2013-04-15 22:45:00,44.4,41.9,29.98,North,9,0.0,1.0,91,0.00,,,0.51,Wunderground v.1.15,2013-04-16 03:45:00,
2013-04-15 22:47:00,44.4,41.9,29.98,NNW,346,0.0,1.0,91,0.00,,,0.51,Wunderground v.1.15,2013-04-16 03:47:00,
2013-04-15 22:48:00,44.4,41.9,29.98,NNW,345,0.0,1.0,91,0.00,,,0.51,Wunderground v.1.15,2013-04-16 03:48:00,
2013-04-15 22:51:00,44.3,41.8,29.98,NNW,333,0.0,1.0,91,0.00,,,0.51,Wunderground v.1.15,2013-04-16 03:51:00,
2013-04-15 22:53:00,44.4,41.9,29.98,NNW,342,0.0,1.0,91,0.00,,,0.51,Wunderground v.1.15,2013-04-16 03:53:00,
2013-04-15 22:54:00,44.3,41.8,29.98,NNW,345,0.0,1.0,91,0.00,,,0.51,Wunderground v.1.15,2013-04-16 03:54:00,
2013-04-15 22:55:00,44.3,41.8,29.98,North,358,0.0,1.0,91,0.00,,,0.51,Wunderground v.1.15,2013-04-16 03:55:00,
2013-04-15 22:57:00,44.3,41.8,29.97,North,8,0.0,1.0,91,0.00,,,0.51,Wunderground v.1.15,2013-04-16 03:57:00,
2013-04-15 22:59:00,44.3,41.8,29.96,North,11,0.0,1.0,91,0.00,,,0.51,Wunderground v.1.15,2013-04-16 03:59:00,
2013-04-15 23:00:00,44.3,41.8,29.97,North,359,0.0,0.0,91,0.00,,,0.51,Wunderground v.1.15,2013-04-16 04:00:00,
2013-04-15 23:01:00,44.2,41.7,29.97,North,359,0.0,0.0,91,0.00,,,0.51,Wunderground v.1.15,2013-04-16 04:01:00,
2013-04-15 23:03:00,44.2,41.5,29.97,NNW,338,0.0,0.0,90,0.00,,,0.51,Wunderground v.1.15,2013-04-16 04:03:00,
2013-04-15 23:06:00,44.1,41.4,29.97,NNE,13,0.0,0.0,90,0.00,,,0.51,Wunderground v.1.15,2013-04-16 04:06:00,
2013-04-15 23:08:00,44.1,41.4,29.97,North,360,0.0,0.0,90,0.00,,,0.51,Wunderground v.1.15,2013-04-16 04:08:00,
2013-04-15 23:11:00,44.1,41.4,29.96,North,354,0.0,0.0,90,0.00,,,0.51,Wunderground v.1.15,2013-04-16 04:11:00,
2013-04-15 23:12:00,44.1,41.4,29.96,NNE,33,0.0,0.0,90,0.00,,,0.51,Wunderground v.1.15,2013-04-16 04:12:00,
2013-04-15 23:13:00,44.1,41.1,29.96,North,359,0.0,0.0,89,0.00,,,0.51,Wunderground v.1.15,2013-04-16 04:13:00,
2013-04-15 23:14:00,44.0,41.0,29.96,North,353,0.0,0.0,89,0.00,,,0.51,Wunderground v.1.15,2013-04-16 04:14:00,
2013-04-15 23:17:00,44.0,40.7,29.96,NNE,13,0.0,2.0,88,0.00,,,0.51,Wunderground v.1.15,2013-04-16 04:17:00,
2013-04-15 23:18:00,44.0,40.7,29.96,North,5,0.0,2.0,88,0.00,,,0.51,Wunderground v.1.15,2013-04-16 04:18:00,
2013-04-15 23:20:00,43.9,40.6,29.96,NNW,346,0.0,1.0,88,0.00,,,0.51,Wunderground v.1.15,2013-04-16 04:20:00,
2013-04-15 23:22:00,43.9,40.3,29.96,NNW,331,0.0,1.0,87,0.00,,,0.51,Wunderground v.1.15,2013-04-16 04:22:00,
2013-04-15 23:23:00,43.9,40.3,29.96,North,353,0.0,1.0,87,0.00,,,0.51,Wunderground v.1.15,2013-04-16 04:23:00,
2013-04-15 23:25:00,43.8,39.9,29.96,NNW,347,1.0,1.0,86,0.00,,,0.51,Wunderground v.1.15,2013-04-16 04:25:00,
2013-04-15 23:30:00,43.8,40.2,29.96,NE,41,0.0,0.0,87,0.00,,,0.51,Wunderground v.1.15,2013-04-16 04:30:00,
2013-04-15 23:31:00,43.8,40.2,29.96,North,349,0.0,1.0,87,0.00,,,0.51,Wunderground v.1.15,2013-04-16 04:31:00,
2013-04-15 23:32:00,43.8,39.9,29.96,NNW,338,0.0,1.0,86,0.00,,,0.51,Wunderground v.1.15,2013-04-16 04:32:00,
2013-04-15 23:33:00,43.8,39.9,29.96,NNW,340,0.0,1.0,86,0.00,,,0.51,Wunderground v.1.15,2013-04-16 04:33:00,
2013-04-15 23:37:00,43.7,39.8,29.96,North,352,1.0,3.0,86,0.00,,,0.51,Wunderground v.1.15,2013-04-16 04:37:00,
2013-04-15 23:38:00,43.7,40.1,29.96,North,5,1.0,3.0,87,0.00,,,0.51,Wunderground v.1.15,2013-04-16 04:38:00,
2013-04-15 23:40:00,43.7,39.8,29.96,NNW,346,1.0,2.0,86,0.00,,,0.51,Wunderground v.1.15,2013-04-16 04:40:00,
2013-04-15 23:42:00,43.6,39.7,29.95,North,1,2.0,2.0,86,0.00,,,0.51,Wunderground v.1.15,2013-04-16 04:42:00,
2013-04-15 23:43:00,43.6,39.7,29.95,NNW,346,2.0,3.0,86,0.00,,,0.51,Wunderground v.1.15,2013-04-16 04:43:00,
2013-04-15 23:47:00,43.6,39.7,29.96,NNW,346,3.0,5.0,86,0.00,,,0.51,Wunderground v.1.15,2013-04-16 04:47:00,
2013-04-15 23:48:00,43.5,39.6,29.96,North,6,3.0,5.0,86,0.00,,,0.51,Wunderground v.1.15,2013-04-16 04:48:00,
2013-04-15 23:50:00,43.5,39.6,29.95,NNE,20,3.0,3.0,86,0.00,,,0.51,Wunderground v.1.15,2013-04-16 04:50:00,
2013-04-15 23:51:00,43.4,39.5,29.95,NNE,30,2.0,3.0,86,0.00,,,0.51,Wunderground v.1.15,2013-04-16 04:51:00,
2013-04-15 23:53:00,43.4,39.5,29.95,North,351,2.0,3.0,86,0.00,,,0.51,Wunderground v.1.15,2013-04-16 04:53:00,
2013-04-15 23:54:00,43.4,39.5,29.96,NNW,342,2.0,3.0,86,0.00,,,0.51,Wunderground v.1.15,2013-04-16 04:54:00,
2013-04-15 23:55:00,43.4,39.5,29.96,NNW,342,2.0,3.0,86,0.00,,,0.51,Wunderground v.1.15,2013-04-16 04:55:00,
2013-04-15 23:58:00,43.3,39.4,29.96,North,353,1.0,4.0,86,0.00,,,0.51,Wunderground v.1.15,2013-04-16 04:58:00,
2013-04-15 23:59:00,43.3,39.4,29.96,NNW,344,1.0,4.0,86,0.00,,,0.51,Wunderground v.1.15,2013-04-16 04:59:00,